Observation data for Dell City 1N on 12/02/2020      Previous  Date       Current Mesonet Observations  Soil Data  Daily Summary Page  Observations in Plain Language
KDC1 020600Z 02008KT 06/M08 A301 RMK A01 T00641077  RH  036%=      5-min Rain = 0
KDC1 020601Z 01007KT 06/M08 A301 RMK A01 T00631077  RH  036%=      5-min Rain = 0
KDC1 020602Z 02011KT 06/M08 A301 RMK A01 T00631077  RH  036%=      5-min Rain = 0
KDC1 020603Z 02009KT 07/M08 A301 RMK A01 T00651077  RH  035%=      5-min Rain = 0
KDC1 020604Z 02009KT 07/M08 A301 RMK A01 T00651077  RH  035%=      5-min Rain = 0
KDC1 020605Z 02007KT 07/M08 A301 RMK A01 T00651078  RH  035%=      5-min Rain = 0
KDC1 020606Z 01008KT 06/M08 A301 RMK A01 T00641078  RH  035%=      5-min Rain = 0
KDC1 020607Z 02007KT 06/M08 A3011 RMK A01 T00641078  RH  035%=      5-min Rain = 0
KDC1 020608Z 01007KT 06/M08 A3011 RMK A01 T00641078  RH  036%=      5-min Rain = 0
KDC1 020609Z 01006KT 06/M08 A3011 RMK A01 T00631078  RH  036%=      5-min Rain = 0
KDC1 020610Z 01007KT 06/M08 A3011 RMK A01 T00621078  RH  036%=      5-min Rain = 0
KDC1 020611Z 01007KT 06/M08 A3011 RMK A01 T00611078  RH  036%=      5-min Rain = 0
KDC1 020612Z 01006KT 06/M08 A3011 RMK A01 T00621078  RH  036%=      5-min Rain = 0
KDC1 020613Z 01006KT 06/M08 A3011 RMK A01 T00611078  RH  036%=      5-min Rain = 0
KDC1 020614Z 00006KT 06/M08 A3011 RMK A01 T00601077  RH  037%=      5-min Rain = 0
KDC1 020615Z 36006KT 06/M08 A3011 RMK A01 T00591076  RH  037%=      5-min Rain = 0
KDC1 020616Z 36006KT 06/M08 A3011 RMK A01 T00571076  RH  038%=      5-min Rain = 0
KDC1 020617Z 01007KT 06/M08 A3011 RMK A01 T00561075  RH  038%=      5-min Rain = 0
KDC1 020618Z 01007KT 06/M08 A3011 RMK A01 T00551076  RH  038%=      5-min Rain = 0
KDC1 020619Z 01007KT 06/M08 A3011 RMK A01 T00561076  RH  038%=      5-min Rain = 0
KDC1 020620Z 01007KT 06/M08 A3011 RMK A01 T00571077  RH  038%=      5-min Rain = 0
KDC1 020621Z 01007KT 06/M08 A3011 RMK A01 T00571077  RH  037%=      5-min Rain = 0
KDC1 020622Z 01007KT 06/M08 A3011 RMK A01 T00571077  RH  037%=      5-min Rain = 0
KDC1 020623Z 01006KT 06/M08 A3011 RMK A01 T00571076  RH  038%=      5-min Rain = 0
KDC1 020624Z 36006KT 06/M08 A3011 RMK A01 T00571075  RH  038%=      5-min Rain = 0
KDC1 020625Z 36006KT 06/M07 A3011 RMK A01 T00561074  RH  039%=      5-min Rain = 0
KDC1 020626Z 36008KT 06/M07 A3011 RMK A01 T00551074  RH  039%=      5-min Rain = 0
KDC1 020627Z 00008KT 06/M07 A3011 RMK A01 T00551073  RH  039%=      5-min Rain = 0
KDC1 020628Z 01009KT 06/M07 A3011 RMK A01 T00551073  RH  039%=      5-min Rain = 0
KDC1 020629Z 01010KT 06/M07 A3011 RMK A01 T00551073  RH  039%=      5-min Rain = 0
KDC1 020630Z 00009KT 06/M07 A3011 RMK A01 T00571073  RH  039%=      5-min Rain = 0
KDC1 020631Z 00008KT 06/M07 A3011 RMK A01 T00571073  RH  039%=      5-min Rain = 0
KDC1 020632Z 36008KT 06/M07 A3011 RMK A01 T00571072  RH  039%=      5-min Rain = 0
KDC1 020633Z 00008KT 06/M07 A3011 RMK A01 T00571072  RH  039%=      5-min Rain = 0
KDC1 020634Z 00008KT 06/M07 A3011 RMK A01 T00561073  RH  039%=      5-min Rain = 0
KDC1 020635Z 00009KT 06/M07 A3011 RMK A01 T00561073  RH  039%=      5-min Rain = 0
KDC1 020636Z 00009KT 06/M07 A3011 RMK A01 T00571073  RH  039%=      5-min Rain = 0
KDC1 020637Z 36008KT 06/M07 A3011 RMK A01 T00581073  RH  039%=      5-min Rain = 0
KDC1 020638Z 36009KT 06/M07 A3011 RMK A01 T00581073  RH  038%=      5-min Rain = 0
KDC1 020639Z 00008KT 06/M07 A3011 RMK A01 T00581073  RH  038%=      5-min Rain = 0
KDC1 020640Z 00008KT 06/M07 A3011 RMK A01 T00591073  RH  038%=      5-min Rain = 0
KDC1 020641Z 35008KT 06/M07 A3011 RMK A01 T00581074  RH  038%=      5-min Rain = 0
KDC1 020642Z 36009KT 06/M07 A3011 RMK A01 T00571073  RH  039%=      5-min Rain = 0
KDC1 020643Z 36008KT 06/M07 A3011 RMK A01 T00561072  RH  039%=      5-min Rain = 0
KDC1 020644Z 36009KT 06/M07 A3012 RMK A01 T00561072  RH  039%=      5-min Rain = 0
KDC1 020645Z 36008KT 06/M07 A3012 RMK A01 T00551073  RH  039%=      5-min Rain = 0
KDC1 020646Z 36008KT 06/M07 A3012 RMK A01 T00551073  RH  039%=      5-min Rain = 0
KDC1 020647Z 00008KT 05/M07 A3012 RMK A01 T00541074  RH  039%=      5-min Rain = 0
KDC1 020648Z 36008KT 05/M07 A3012 RMK A01 T00541074  RH  039%=      5-min Rain = 0
KDC1 020649Z 00008KT 05/M07 A3012 RMK A01 T00541073  RH  039%=      5-min Rain = 0
KDC1 020650Z 00008KT 05/M07 A3012 RMK A01 T00541073  RH  039%=      5-min Rain = 0
KDC1 020651Z 00008KT 06/M07 A3012 RMK A01 T00551072  RH  040%=      5-min Rain = 0
KDC1 020652Z 01008KT 05/M07 A3012 RMK A01 T00541073  RH  040%=      5-min Rain = 0
KDC1 020653Z 00008KT 05/M07 A3012 RMK A01 T00531073  RH  040%=      5-min Rain = 0
KDC1 020654Z 00008KT 05/M07 A3012 RMK A01 T00541073  RH  040%=      5-min Rain = 0
KDC1 020655Z 00008KT 05/M07 A3012 RMK A01 T00541073  RH  040%=      5-min Rain = 0
KDC1 020656Z 01009KT 05/M07 A3012 RMK A01 T00541073  RH  039%=      5-min Rain = 0
KDC1 020657Z 00008KT 06/M07 A3012 RMK A01 T00551072  RH  039%=      5-min Rain = 0
KDC1 020658Z 01008KT 06/M07 A3012 RMK A01 T00551072  RH  040%=      5-min Rain = 0
KDC1 020659Z 00008KT 05/M07 A3012 RMK A01 T00531072  RH  040%=      5-min Rain = 0
KDC1 020700Z 00008KT 05/M07 A3012 RMK A01 T00531072  RH  040%=      5-min Rain = 0
KDC1 020701Z 00007KT 05/M07 A3012 RMK A01 T00521073  RH  040%=      5-min Rain = 0
KDC1 020702Z 00007KT 05/M07 A3012 RMK A01 T00531073  RH  040%=      5-min Rain = 0
KDC1 020703Z 00008KT 05/M07 A3012 RMK A01 T00531073  RH  040%=      5-min Rain = 0
KDC1 020704Z 00008KT 05/M07 A3012 RMK A01 T00531074  RH  039%=      5-min Rain = 0
KDC1 020705Z 01009KT 05/M07 A3012 RMK A01 T00531074  RH  039%=      5-min Rain = 0
KDC1 020706Z 01010KT 06/M07 A3012 RMK A01 T00551073  RH  039%=      5-min Rain = 0
KDC1 020707Z 03012KT 06/M07 A3012 RMK A01 T00581073  RH  038%=      5-min Rain = 0
KDC1 020708Z 01012KT 06/M07 A3012 RMK A01 T00611073  RH  038%=      5-min Rain = 0
KDC1 020709Z 02010G15KT 06/M07 A3012 RMK A01 T00621074  RH  037%=      5-min Rain = 0
KDC1 020710Z 02010KT 06/M08 A3012 RMK A01 T00621075  RH  037%=      5-min Rain = 0
KDC1 020711Z 02009KT 06/M08 A3012 RMK A01 T00621075  RH  037%=      5-min Rain = 0
KDC1 020712Z 02009KT 06/M08 A3012 RMK A01 T00611076  RH  037%=      5-min Rain = 0
KDC1 020713Z 02009KT 06/M08 A3012 RMK A01 T00601076  RH  037%=      5-min Rain = 0
KDC1 020714Z 02009KT 06/M08 A3012 RMK A01 T00581077  RH  037%=      5-min Rain = 0
KDC1 020715Z 02010KT 06/M08 A3012 RMK A01 T00571077  RH  038%=      5-min Rain = 0
KDC1 020716Z 02009KT 06/M08 A3012 RMK A01 T00561077  RH  038%=      5-min Rain = 0
KDC1 020717Z 02009KT 06/M08 A3012 RMK A01 T00561077  RH  038%=      5-min Rain = 0
KDC1 020718Z 02009KT 06/M08 A3012 RMK A01 T00551078  RH  038%=      5-min Rain = 0
KDC1 020719Z 02009KT 06/M08 A3012 RMK A01 T00561078  RH  038%=      5-min Rain = 0
KDC1 020720Z 03010KT 06/M08 A3012 RMK A01 T00551079  RH  037%=      5-min Rain = 0
KDC1 020721Z 03008KT 06/M08 A3013 RMK A01 T00551080  RH  037%=      5-min Rain = 0
KDC1 020722Z 03008KT 06/M08 A3013 RMK A01 T00561080  RH  037%=      5-min Rain = 0
KDC1 020723Z 03009KT 06/M08 A3013 RMK A01 T00551080  RH  037%=      5-min Rain = 0
KDC1 020724Z 03008KT 06/M08 A3013 RMK A01 T00551081  RH  037%=      5-min Rain = 0
KDC1 020725Z 03008KT 05/M08 A3013 RMK A01 T00541082  RH  037%=      5-min Rain = 0
KDC1 020726Z 04010KT 05/M08 A3013 RMK A01 T00541082  RH  037%=      5-min Rain = 0
KDC1 020727Z 03013KT 06/M08 A3013 RMK A01 T00551082  RH  036%=      5-min Rain = 0
KDC1 020728Z 03012KT 06/M08 A3013 RMK A01 T00581082  RH  036%=      5-min Rain = 0
KDC1 020729Z 03010KT 06/M08 A3013 RMK A01 T00591083  RH  035%=      5-min Rain = 0
KDC1 020730Z 03011KT 06/M08 A3013 RMK A01 T00591083  RH  035%=      5-min Rain = 0
KDC1 020731Z 03011KT 06/M08 A3013 RMK A01 T00581084  RH  035%=      5-min Rain = 0
KDC1 020732Z 03011KT 06/M09 A3013 RMK A01 T00581085  RH  035%=      5-min Rain = 0
KDC1 020733Z 03013KT 06/M08 A3013 RMK A01 T00591084  RH  035%=      5-min Rain = 0
KDC1 020734Z 03011KT 06/M09 A3013 RMK A01 T00601085  RH  035%=      5-min Rain = 0
KDC1 020735Z 03011KT 06/M09 A3013 RMK A01 T00601085  RH  034%=      5-min Rain = 0
KDC1 020736Z 03010KT 06/M09 A3013 RMK A01 T00601085  RH  034%=      5-min Rain = 0
KDC1 020737Z 03012KT 06/M09 A3013 RMK A01 T00591085  RH  035%=      5-min Rain = 0
KDC1 020738Z 03011KT 06/M09 A3013 RMK A01 T00591086  RH  035%=      5-min Rain = 0
KDC1 020739Z 03009KT 06/M09 A3013 RMK A01 T00581086  RH  035%=      5-min Rain = 0
KDC1 020740Z 03009KT 06/M09 A3013 RMK A01 T00581086  RH  035%=      5-min Rain = 0
KDC1 020741Z 03009KT 06/M09 A3013 RMK A01 T00571085  RH  035%=      5-min Rain = 0
KDC1 020742Z 02009KT 06/M09 A3013 RMK A01 T00561085  RH  035%=      5-min Rain = 0
KDC1 020743Z 02009KT 06/M09 A3013 RMK A01 T00551085  RH  036%=      5-min Rain = 0
KDC1 020744Z 02008KT 05/M09 A3013 RMK A01 T00541085  RH  036%=      5-min Rain = 0
KDC1 020745Z 02008KT 05/M08 A3013 RMK A01 T00531084  RH  036%=      5-min Rain = 0
KDC1 020746Z 02009KT 05/M08 A3014 RMK A01 T00531084  RH  037%=      5-min Rain = 0
KDC1 020747Z 02009KT 05/M08 A3014 RMK A01 T00531083  RH  037%=      5-min Rain = 0
KDC1 020748Z 02008KT 05/M08 A3014 RMK A01 T00531084  RH  037%=      5-min Rain = 0
KDC1 020749Z 03008KT 05/M08 A3014 RMK A01 T00521084  RH  037%=      5-min Rain = 0
KDC1 020750Z 02008KT 05/M08 A3014 RMK A01 T00521084  RH  037%=      5-min Rain = 0
KDC1 020751Z 02008KT 05/M08 A3014 RMK A01 T00511083  RH  037%=      5-min Rain = 0
KDC1 020752Z 02008KT 05/M08 A3014 RMK A01 T00511083  RH  037%=      5-min Rain = 0
KDC1 020753Z 02007KT 05/M08 A3014 RMK A01 T00511083  RH  037%=      5-min Rain = 0
KDC1 020754Z 02008KT 05/M08 A3014 RMK A01 T00511083  RH  037%=      5-min Rain = 0
KDC1 020755Z 02008KT 05/M08 A3014 RMK A01 T00501083  RH  038%=      5-min Rain = 0
KDC1 020756Z 02008KT 05/M08 A3014 RMK A01 T00501083  RH  038%=      5-min Rain = 0
KDC1 020757Z 02009KT 05/M08 A3014 RMK A01 T00501082  RH  038%=      5-min Rain = 0
KDC1 020758Z 02009KT 05/M08 A3014 RMK A01 T00501082  RH  038%=      5-min Rain = 0
KDC1 020759Z 02009KT 05/M08 A3014 RMK A01 T00511082  RH  038%=      5-min Rain = 0
KDC1 020800Z 02008KT 05/M08 A3014 RMK A01 T00521081  RH  038%=      5-min Rain = 0
KDC1 020801Z 02008KT 05/M08 A3014 RMK A01 T00511081  RH  038%=      5-min Rain = 0
KDC1 020802Z 01007KT 05/M08 A3014 RMK A01 T00501081  RH  038%=      5-min Rain = 0
KDC1 020803Z 02008KT 05/M08 A3014 RMK A01 T00481081  RH  039%=      5-min Rain = 0
KDC1 020804Z 02007KT 05/M08 A3014 RMK A01 T00471080  RH  039%=      5-min Rain = 0
KDC1 020805Z 02007KT 05/M08 A3014 RMK A01 T00461080  RH  039%=      5-min Rain = 0
KDC1 020806Z 02008KT 05/M08 A3014 RMK A01 T00461080  RH  040%=      5-min Rain = 0
KDC1 020807Z 02009KT 05/M08 A3014 RMK A01 T00461080  RH  040%=      5-min Rain = 0
KDC1 020808Z 02008KT 05/M08 A3014 RMK A01 T00461080  RH  039%=      5-min Rain = 0
KDC1 020809Z 02008KT 05/M08 A3014 RMK A01 T00461080  RH  039%=      5-min Rain = 0
KDC1 020810Z 03010KT 05/M08 A3014 RMK A01 T00461080  RH  040%=      5-min Rain = 0
KDC1 020811Z 03010KT 05/M08 A3014 RMK A01 T00491079  RH  039%=      5-min Rain = 0
KDC1 020812Z 03010KT 05/M08 A3015 RMK A01 T00501079  RH  039%=      5-min Rain = 0
KDC1 020813Z 02010KT 05/M08 A3015 RMK A01 T00501079  RH  039%=      5-min Rain = 0
KDC1 020814Z 02010KT 05/M08 A3015 RMK A01 T00511079  RH  039%=      5-min Rain = 0
KDC1 020815Z 02009KT 05/M08 A3015 RMK A01 T00511079  RH  038%=      5-min Rain = 0
KDC1 020816Z 03010KT 05/M08 A3015 RMK A01 T00501079  RH  039%=      5-min Rain = 0
KDC1 020817Z 02008KT 05/M08 A3015 RMK A01 T00501078  RH  039%=      5-min Rain = 0
KDC1 020818Z 02008KT 05/M08 A3015 RMK A01 T00491078  RH  039%=      5-min Rain = 0
KDC1 020819Z 02008KT 05/M08 A3014 RMK A01 T00481078  RH  040%=      5-min Rain = 0
KDC1 020820Z 02007KT 05/M08 A3015 RMK A01 T00471077  RH  040%=      5-min Rain = 0
KDC1 020821Z 02008KT 05/M08 A3015 RMK A01 T00471077  RH  040%=      5-min Rain = 0
KDC1 020822Z 03007KT 05/M08 A3015 RMK A01 T00461076  RH  041%=      5-min Rain = 0
KDC1 020823Z 03008KT 05/M08 A3015 RMK A01 T00461076  RH  041%=      5-min Rain = 0
KDC1 020824Z 03007KT 05/M08 A3015 RMK A01 T00461076  RH  041%=      5-min Rain = 0
KDC1 020825Z 03007KT 05/M08 A3015 RMK A01 T00451076  RH  041%=      5-min Rain = 0
KDC1 020826Z 03008KT 05/M08 A3015 RMK A01 T00451076  RH  041%=      5-min Rain = 0
KDC1 020827Z 03007KT 05/M08 A3015 RMK A01 T00461076  RH  041%=      5-min Rain = 0
KDC1 020828Z 03008KT 05/M08 A3015 RMK A01 T00471075  RH  041%=      5-min Rain = 0
KDC1 020829Z 02006KT 05/M08 A3015 RMK A01 T00471075  RH  041%=      5-min Rain = 0
KDC1 020830Z 03006KT 05/M08 A3015 RMK A01 T00471075  RH  041%=      5-min Rain = 0
KDC1 020831Z 03006KT 05/M08 A3015 RMK A01 T00451075  RH  041%=      5-min Rain = 0
KDC1 020832Z 02006KT 04/M08 A3015 RMK A01 T00441075  RH  042%=      5-min Rain = 0
KDC1 020833Z 02007KT 04/M07 A3015 RMK A01 T00431074  RH  042%=      5-min Rain = 0
KDC1 020834Z 03007KT 04/M07 A3015 RMK A01 T00431074  RH  043%=      5-min Rain = 0
KDC1 020835Z 03008KT 04/M07 A3015 RMK A01 T00431073  RH  043%=      5-min Rain = 0
KDC1 020836Z 02008KT 04/M07 A3015 RMK A01 T00431073  RH  043%=      5-min Rain = 0
KDC1 020837Z 03009KT 04/M07 A3016 RMK A01 T00441073  RH  042%=      5-min Rain = 0
KDC1 020838Z 03009KT 05/M07 A3016 RMK A01 T00461073  RH  042%=      5-min Rain = 0
KDC1 020839Z 03010KT 05/M07 A3016 RMK A01 T00471073  RH  041%=      5-min Rain = 0
KDC1 020840Z 03011KT 05/M07 A3016 RMK A01 T00481073  RH  041%=      5-min Rain = 0
KDC1 020841Z 03010KT 05/M07 A3016 RMK A01 T00491074  RH  041%=      5-min Rain = 0
KDC1 020842Z 02010KT 05/M07 A3016 RMK A01 T00491074  RH  041%=      5-min Rain = 0
KDC1 020843Z 02010KT 05/M07 A3016 RMK A01 T00491074  RH  041%=      5-min Rain = 0
KDC1 020844Z 02010KT 05/M07 A3016 RMK A01 T00491074  RH  041%=      5-min Rain = 0
KDC1 020845Z 03010KT 05/M07 A3016 RMK A01 T00491074  RH  040%=      5-min Rain = 0
KDC1 020846Z 03009KT 05/M07 A3016 RMK A01 T00501074  RH  040%=      5-min Rain = 0
KDC1 020847Z 03011KT 05/M08 A3016 RMK A01 T00491075  RH  040%=      5-min Rain = 0
KDC1 020848Z 03011KT 05/M08 A3016 RMK A01 T00491075  RH  040%=      5-min Rain = 0
KDC1 020849Z 03011KT 05/M08 A3016 RMK A01 T00501075  RH  040%=      5-min Rain = 0
KDC1 020850Z 03011KT 05/M08 A3016 RMK A01 T00501076  RH  040%=      5-min Rain = 0
KDC1 020851Z 02009KT 05/M08 A3016 RMK A01 T00501076  RH  040%=      5-min Rain = 0
KDC1 020852Z 03009KT 05/M08 A3016 RMK A01 T00491076  RH  040%=      5-min Rain = 0
KDC1 020853Z 02009KT 05/M08 A3016 RMK A01 T00491077  RH  040%=      5-min Rain = 0
KDC1 020854Z 03008KT 05/M08 A3016 RMK A01 T00481077  RH  040%=      5-min Rain = 0
KDC1 020855Z 03008KT 05/M08 A3016 RMK A01 T00461077  RH  040%=      5-min Rain = 0
KDC1 020856Z 03009KT 05/M08 A3016 RMK A01 T00461077  RH  040%=      5-min Rain = 0
KDC1 020857Z 03009KT 05/M08 A3016 RMK A01 T00461077  RH  040%=      5-min Rain = 0
KDC1 020858Z 03009KT 05/M08 A3016 RMK A01 T00461077  RH  040%=      5-min Rain = 0
KDC1 020859Z 03008KT 05/M08 A3016 RMK A01 T00461078  RH  040%=      5-min Rain = 0
KDC1 020900Z 03009KT 05/M08 A3016 RMK A01 T00461078  RH  040%=      5-min Rain = 0
KDC1 020901Z 03008KT 05/M08 A3016 RMK A01 T00451078  RH  040%=      5-min Rain = 0
KDC1 020902Z 03009KT 04/M08 A3016 RMK A01 T00441078  RH  041%=      5-min Rain = 0
KDC1 020903Z 04009KT 05/M08 A3016 RMK A01 T00451078  RH  041%=      5-min Rain = 0
KDC1 020904Z 03010KT 05/M08 A3016 RMK A01 T00451078  RH  040%=      5-min Rain = 0
KDC1 020905Z 03009KT 05/M08 A3016 RMK A01 T00451078  RH  040%=      5-min Rain = 0
KDC1 020906Z 03010KT 05/M08 A3016 RMK A01 T00451078  RH  041%=      5-min Rain = 0
KDC1 020907Z 03011KT 05/M08 A3017 RMK A01 T00451077  RH  041%=      5-min Rain = 0
KDC1 020908Z 03010KT 05/M08 A3017 RMK A01 T00461077  RH  041%=      5-min Rain = 0
KDC1 020909Z 03010KT 05/M08 A3017 RMK A01 T00461076  RH  041%=      5-min Rain = 0
KDC1 020910Z 03010KT 05/M08 A3017 RMK A01 T00461076  RH  041%=      5-min Rain = 0
KDC1 020911Z 03010KT 05/M08 A3017 RMK A01 T00461076  RH  041%=      5-min Rain = 0
KDC1 020912Z 03011KT 05/M08 A3017 RMK A01 T00451076  RH  041%=      5-min Rain = 0
KDC1 020913Z 03011KT 05/M08 A3017 RMK A01 T00461075  RH  041%=      5-min Rain = 0
KDC1 020914Z 03009KT 05/M08 A3017 RMK A01 T00451075  RH  041%=      5-min Rain = 0
KDC1 020915Z 03010KT 05/M08 A3017 RMK A01 T00451075  RH  041%=      5-min Rain = 0
KDC1 020916Z 03009KT 05/M08 A3017 RMK A01 T00451075  RH  041%=      5-min Rain = 0
KDC1 020917Z 03009KT 05/M07 A3017 RMK A01 T00451074  RH  042%=      5-min Rain = 0
KDC1 020918Z 03010KT 04/M07 A3017 RMK A01 T00441074  RH  042%=      5-min Rain = 0
KDC1 020919Z 02011KT 04/M07 A3017 RMK A01 T00441074  RH  042%=      5-min Rain = 0
KDC1 020920Z 03009KT 05/M07 A3016 RMK A01 T00451073  RH  042%=      5-min Rain = 0
KDC1 020921Z 03010G15KT 05/M07 A3017 RMK A01 T00451073  RH  042%=      5-min Rain = 0
KDC1 020922Z 03010KT 05/M07 A3016 RMK A01 T00451073  RH  042%=      5-min Rain = 0
KDC1 020923Z 03009KT 05/M07 A3017 RMK A01 T00451073  RH  042%=      5-min Rain = 0
KDC1 020924Z 03009KT 04/M07 A3017 RMK A01 T00441074  RH  042%=      5-min Rain = 0
KDC1 020925Z 02009KT 04/M07 A3017 RMK A01 T00441074  RH  042%=      5-min Rain = 0
KDC1 020926Z 03009KT 04/M07 A3017 RMK A01 T00431074  RH  042%=      5-min Rain = 0
KDC1 020927Z 02009KT 04/M07 A3017 RMK A01 T00431073  RH  042%=      5-min Rain = 0
KDC1 020928Z 03009KT 04/M07 A3017 RMK A01 T00431074  RH  042%=      5-min Rain = 0
KDC1 020929Z 03009KT 04/M07 A3017 RMK A01 T00431074  RH  042%=      5-min Rain = 0
KDC1 020930Z 03009KT 04/M07 A3017 RMK A01 T00431074  RH  042%=      5-min Rain = 0
KDC1 020931Z 03010KT 04/M07 A3017 RMK A01 T00431074  RH  042%=      5-min Rain = 0
KDC1 020932Z 03010KT 04/M08 A3017 RMK A01 T00421075  RH  042%=      5-min Rain = 0
KDC1 020933Z 04010KT 04/M08 A3017 RMK A01 T00421076  RH  042%=      5-min Rain = 0
KDC1 020934Z 03009KT 04/M08 A3017 RMK A01 T00411076  RH  042%=      5-min Rain = 0
KDC1 020935Z 03010KT 04/M08 A3017 RMK A01 T00411076  RH  042%=      5-min Rain = 0
KDC1 020936Z 03009KT 04/M08 A3017 RMK A01 T00421075  RH  042%=      5-min Rain = 0
KDC1 020937Z 03009KT 04/M08 A3017 RMK A01 T00421075  RH  042%=      5-min Rain = 0
KDC1 020938Z 03009KT 04/M08 A3017 RMK A01 T00421075  RH  042%=      5-min Rain = 0
KDC1 020939Z 03007KT 04/M08 A3017 RMK A01 T00421075  RH  042%=      5-min Rain = 0
KDC1 020940Z 03008KT 04/M08 A3017 RMK A01 T00411075  RH  042%=      5-min Rain = 0
KDC1 020941Z 04008KT 04/M08 A3017 RMK A01 T00411075  RH  043%=      5-min Rain = 0
KDC1 020942Z 04008KT 04/M08 A3017 RMK A01 T00411075  RH  043%=      5-min Rain = 0
KDC1 020943Z 03008KT 04/M07 A3017 RMK A01 T00411074  RH  043%=      5-min Rain = 0
KDC1 020944Z 03008KT 04/M07 A3017 RMK A01 T00411074  RH  043%=      5-min Rain = 0
KDC1 020945Z 04010KT 04/M07 A3017 RMK A01 T00411074  RH  043%=      5-min Rain = 0
KDC1 020946Z 03009KT 04/M07 A3017 RMK A01 T00411074  RH  043%=      5-min Rain = 0
KDC1 020947Z 03009KT 04/M07 A3017 RMK A01 T00411073  RH  043%=      5-min Rain = 0
KDC1 020948Z 04008KT 04/M07 A3017 RMK A01 T00421073  RH  043%=      5-min Rain = 0
KDC1 020949Z 03008KT 04/M07 A3017 RMK A01 T00411073  RH  043%=      5-min Rain = 0
KDC1 020950Z 03008KT 04/M07 A3017 RMK A01 T00411073  RH  043%=      5-min Rain = 0
KDC1 020951Z 03008KT 04/M07 A3018 RMK A01 T00401073  RH  044%=      5-min Rain = 0
KDC1 020952Z 03008KT 04/M07 A3018 RMK A01 T00401072  RH  044%=      5-min Rain = 0
KDC1 020953Z 03008KT 04/M07 A3018 RMK A01 T00401072  RH  044%=      5-min Rain = 0
KDC1 020954Z 03008KT 04/M07 A3018 RMK A01 T00401073  RH  044%=      5-min Rain = 0
KDC1 020955Z 03009KT 04/M07 A3018 RMK A01 T00401072  RH  044%=      5-min Rain = 0
KDC1 020956Z 03009KT 04/M07 A3018 RMK A01 T00391072  RH  044%=      5-min Rain = 0
KDC1 020957Z 03010KT 04/M07 A3018 RMK A01 T00401072  RH  044%=      5-min Rain = 0
KDC1 020958Z 04010KT 04/M07 A3018 RMK A01 T00411072  RH  044%=      5-min Rain = 0
KDC1 020959Z 03009KT 04/M07 A3018 RMK A01 T00411072  RH  043%=      5-min Rain = 0
KDC1 021000Z 03009KT 04/M07 A3018 RMK A01 T00411072  RH  043%=      5-min Rain = 0
KDC1 021001Z 03008KT 04/M07 A3018 RMK A01 T00401072  RH  044%=      5-min Rain = 0
KDC1 021002Z 03008KT 04/M07 A3018 RMK A01 T00391073  RH  044%=      5-min Rain = 0
KDC1 021003Z 03007KT 04/M07 A3018 RMK A01 T00391073  RH  044%=      5-min Rain = 0
KDC1 021004Z 03008KT 04/M07 A3018 RMK A01 T00381073  RH  044%=      5-min Rain = 0
KDC1 021005Z 03008KT 04/M07 A3018 RMK A01 T00361074  RH  044%=      5-min Rain = 0
KDC1 021006Z 03007KT 04/M07 A3018 RMK A01 T00361074  RH  045%=      5-min Rain = 0
KDC1 021007Z 03007KT 04/M07 A3018 RMK A01 T00351074  RH  045%=      5-min Rain = 0
KDC1 021008Z 03007KT 03/M07 A3018 RMK A01 T00341073  RH  045%=      5-min Rain = 0
KDC1 021009Z 02009KT 03/M07 A3018 RMK A01 T00341073  RH  045%=      5-min Rain = 0
KDC1 021010Z 03010KT 03/M07 A3018 RMK A01 T00341073  RH  045%=      5-min Rain = 0
KDC1 021011Z 03008KT 04/M07 A3018 RMK A01 T00361072  RH  045%=      5-min Rain = 0
KDC1 021012Z 02007KT 04/M07 A3018 RMK A01 T00361073  RH  045%=      5-min Rain = 0
KDC1 021013Z 02007KT 04/M07 A3018 RMK A01 T00351073  RH  045%=      5-min Rain = 0
KDC1 021014Z 02007KT 03/M07 A3018 RMK A01 T00341073  RH  045%=      5-min Rain = 0
KDC1 021015Z 02006KT 03/M07 A3018 RMK A01 T00331074  RH  046%=      5-min Rain = 0
KDC1 021016Z 02007KT 03/M07 A3018 RMK A01 T00311074  RH  046%=      5-min Rain = 0
KDC1 021017Z 02007KT 03/M07 A3018 RMK A01 T00301073  RH  046%=      5-min Rain = 0
KDC1 021018Z 02008KT 03/M07 A3018 RMK A01 T00301073  RH  047%=      5-min Rain = 0
KDC1 021019Z 03007KT 03/M07 A3018 RMK A01 T00311072  RH  047%=      5-min Rain = 0
KDC1 021020Z 02007KT 03/M07 A3018 RMK A01 T00311072  RH  047%=      5-min Rain = 0
KDC1 021021Z 02008KT 03/M07 A3018 RMK A01 T00311072  RH  047%=      5-min Rain = 0
KDC1 021022Z 02008KT 03/M07 A3018 RMK A01 T00311072  RH  047%=      5-min Rain = 0
KDC1 021023Z 02008KT 03/M07 A3018 RMK A01 T00311072  RH  047%=      5-min Rain = 0
KDC1 021024Z 02007KT 03/M07 A3018 RMK A01 T00301072  RH  047%=      5-min Rain = 0
KDC1 021025Z 02008KT 03/M07 A3018 RMK A01 T00291072  RH  047%=      5-min Rain = 0
KDC1 021026Z 02008KT 03/M07 A3018 RMK A01 T00291072  RH  048%=      5-min Rain = 0
KDC1 021027Z 02008KT 03/M07 A3018 RMK A01 T00281071  RH  048%=      5-min Rain = 0
KDC1 021028Z 02008KT 03/M07 A3017 RMK A01 T00281071  RH  048%=      5-min Rain = 0
KDC1 021029Z 02008KT 03/M07 A3017 RMK A01 T00281070  RH  048%=      5-min Rain = 0
KDC1 021030Z 02009KT 03/M07 A3017 RMK A01 T00291069  RH  048%=      5-min Rain = 0
KDC1 021031Z 02008KT 03/M07 A3018 RMK A01 T00281069  RH  049%=      5-min Rain = 0
KDC1 021032Z 02008KT 03/M07 A3018 RMK A01 T00291068  RH  049%=      5-min Rain = 0
KDC1 021033Z 02007KT 03/M07 A3018 RMK A01 T00281068  RH  049%=      5-min Rain = 0
KDC1 021034Z 02008KT 03/M07 A3018 RMK A01 T00281067  RH  050%=      5-min Rain = 0
KDC1 021035Z 02008KT 03/M07 A3018 RMK A01 T00271067  RH  050%=      5-min Rain = 0
KDC1 021036Z 02008KT 03/M07 A3018 RMK A01 T00261067  RH  050%=      5-min Rain = 0
KDC1 021037Z 02008KT 03/M07 A3018 RMK A01 T00261066  RH  051%=      5-min Rain = 0
KDC1 021038Z 02008KT 03/M07 A3018 RMK A01 T00271065  RH  051%=      5-min Rain = 0
KDC1 021039Z 02008KT 03/M06 A3018 RMK A01 T00271064  RH  051%=      5-min Rain = 0
KDC1 021040Z 02008KT 03/M06 A3018 RMK A01 T00271063  RH  051%=      5-min Rain = 0
KDC1 021041Z 02008KT 03/M06 A3018 RMK A01 T00281063  RH  051%=      5-min Rain = 0
KDC1 021042Z 02008KT 03/M06 A3018 RMK A01 T00271062  RH  052%=      5-min Rain = 0
KDC1 021043Z 02008KT 03/M06 A3018 RMK A01 T00271061  RH  052%=      5-min Rain = 0
KDC1 021044Z 02008KT 03/M06 A3018 RMK A01 T00281060  RH  052%=      5-min Rain = 0
KDC1 021045Z 02008KT 03/M06 A3018 RMK A01 T00281059  RH  053%=      5-min Rain = 0
KDC1 021046Z 02008KT 03/M06 A3018 RMK A01 T00291059  RH  053%=      5-min Rain = 0
KDC1 021047Z 02007KT 03/M06 A3018 RMK A01 T00291058  RH  053%=      5-min Rain = 0
KDC1 021048Z 02008KT 03/M06 A3019 RMK A01 T00291058  RH  053%=      5-min Rain = 0
KDC1 021049Z 02007KT 03/M06 A3019 RMK A01 T00281057  RH  053%=      5-min Rain = 0
KDC1 021050Z 02007KT 03/M06 A3019 RMK A01 T00271056  RH  054%=      5-min Rain = 0
KDC1 021051Z 02007KT 03/M06 A3019 RMK A01 T00271055  RH  055%=      5-min Rain = 0
KDC1 021052Z 02007KT 03/M06 A3019 RMK A01 T00261055  RH  055%=      5-min Rain = 0
KDC1 021053Z 02007KT 03/M05 A3019 RMK A01 T00261054  RH  056%=      5-min Rain = 0
KDC1 021054Z 02007KT 03/M05 A3019 RMK A01 T00261053  RH  056%=      5-min Rain = 0
KDC1 021055Z 01007KT 03/M05 A3019 RMK A01 T00251053  RH  056%=      5-min Rain = 0
KDC1 021056Z 01007KT 03/M05 A3019 RMK A01 T00261052  RH  057%=      5-min Rain = 0
KDC1 021057Z 01007KT 03/M05 A3019 RMK A01 T00251052  RH  057%=      5-min Rain = 0
KDC1 021058Z 01007KT 03/M05 A3019 RMK A01 T00251051  RH  057%=      5-min Rain = 0
KDC1 021059Z 01007KT 02/M05 A3019 RMK A01 T00241051  RH  058%=      5-min Rain = 0
KDC1 021100Z 01007KT 02/M05 A3019 RMK A01 T00241050  RH  058%=      5-min Rain = 0
KDC1 021101Z 00007KT 02/M05 A3019 RMK A01 T00241050  RH  058%=      5-min Rain = 0
KDC1 021102Z 36007KT 02/M05 A3019 RMK A01 T00231049  RH  059%=      5-min Rain = 0
KDC1 021103Z 00007KT 02/M05 A3019 RMK A01 T00221050  RH  059%=      5-min Rain = 0
KDC1 021104Z 36008KT 02/M05 A3019 RMK A01 T00211049  RH  060%=      5-min Rain = 0
KDC1 021105Z 00007KT 02/M05 A3019 RMK A01 T00201049  RH  060%=      5-min Rain = 0
KDC1 021106Z 00008KT 02/M05 A3019 RMK A01 T00191049  RH  060%=      5-min Rain = 0
KDC1 021107Z 36008KT 02/M05 A3019 RMK A01 T00191049  RH  061%=      5-min Rain = 0
KDC1 021108Z 36008KT 02/M05 A3019 RMK A01 T00181050  RH  061%=      5-min Rain = 0
KDC1 021109Z 00008KT 02/M05 A3019 RMK A01 T00181050  RH  061%=      5-min Rain = 0
KDC1 021110Z 00008KT 02/M05 A3019 RMK A01 T00181050  RH  061%=      5-min Rain = 0
KDC1 021111Z 00008KT 02/M05 A3019 RMK A01 T00181050  RH  060%=      5-min Rain = 0
KDC1 021112Z 01009KT 02/M05 A3019 RMK A01 T00181051  RH  060%=      5-min Rain = 0
KDC1 021113Z 00009KT 02/M05 A3019 RMK A01 T00181051  RH  060%=      5-min Rain = 0
KDC1 021114Z 00009KT 02/M05 A3019 RMK A01 T00191051  RH  060%=      5-min Rain = 0
KDC1 021115Z 00008KT 02/M05 A3019 RMK A01 T00181051  RH  060%=      5-min Rain = 0
KDC1 021116Z 01009KT 02/M05 A3019 RMK A01 T00181051  RH  060%=      5-min Rain = 0
KDC1 021117Z 01008KT 02/M05 A3019 RMK A01 T00171051  RH  060%=      5-min Rain = 0
KDC1 021118Z 01008KT 02/M05 A3019 RMK A01 T00171052  RH  060%=      5-min Rain = 0
KDC1 021119Z 00008KT 02/M05 A302 RMK A01 T00171052  RH  060%=      5-min Rain = 0
KDC1 021120Z 01008KT 02/M05 A302 RMK A01 T00171052  RH  060%=      5-min Rain = 0
KDC1 021121Z 01008KT 02/M05 A302 RMK A01 T00171052  RH  060%=      5-min Rain = 0
KDC1 021122Z 01008KT 02/M05 A302 RMK A01 T00161053  RH  060%=      5-min Rain = 0
KDC1 021123Z 01007KT 02/M05 A302 RMK A01 T00151054  RH  060%=      5-min Rain = 0
KDC1 021124Z 01008KT 02/M05 A302 RMK A01 T00151054  RH  060%=      5-min Rain = 0
KDC1 021125Z 01007KT 01/M05 A302 RMK A01 T00141054  RH  060%=      5-min Rain = 0
KDC1 021126Z 01007KT 01/M05 A302 RMK A01 T00141054  RH  060%=      5-min Rain = 0
KDC1 021127Z 01008KT 01/M05 A302 RMK A01 T00141054  RH  060%=      5-min Rain = 0
KDC1 021128Z 01008KT 01/M05 A3019 RMK A01 T00131054  RH  061%=      5-min Rain = 0
KDC1 021129Z 01008KT 01/M05 A3019 RMK A01 T00131054  RH  061%=      5-min Rain = 0
KDC1 021130Z 01008KT 01/M06 A3019 RMK A01 T00131055  RH  061%=      5-min Rain = 0
KDC1 021131Z 01008KT 01/M06 A3019 RMK A01 T00121055  RH  061%=      5-min Rain = 0
KDC1 021132Z 01008KT 01/M06 A3019 RMK A01 T00121056  RH  061%=      5-min Rain = 0
KDC1 021133Z 01007KT 01/M06 A3019 RMK A01 T00111056  RH  061%=      5-min Rain = 0
KDC1 021134Z 00007KT 01/M06 A3019 RMK A01 T00101057  RH  061%=      5-min Rain = 0
KDC1 021135Z 01008KT 01/M06 A302 RMK A01 T00091057  RH  062%=      5-min Rain = 0
KDC1 021136Z 01008KT 01/M06 A302 RMK A01 T00081057  RH  062%=      5-min Rain = 0
KDC1 021137Z 01008KT 01/M06 A302 RMK A01 T00081057  RH  062%=      5-min Rain = 0
KDC1 021138Z 01008KT 01/M06 A302 RMK A01 T00081058  RH  061%=      5-min Rain = 0
KDC1 021139Z 01008KT 01/M06 A302 RMK A01 T00081058  RH  061%=      5-min Rain = 0
KDC1 021140Z 01008KT 01/M06 A302 RMK A01 T00091058  RH  061%=      5-min Rain = 0
KDC1 021141Z 02008KT 01/M06 A302 RMK A01 T00091058  RH  061%=      5-min Rain = 0
KDC1 021142Z 01008KT 01/M06 A302 RMK A01 T00101058  RH  061%=      5-min Rain = 0
KDC1 021143Z 01007KT 01/M06 A302 RMK A01 T00111058  RH  060%=      5-min Rain = 0
KDC1 021144Z 01007KT 01/M06 A302 RMK A01 T00111058  RH  060%=      5-min Rain = 0
KDC1 021145Z 02008KT 01/M06 A302 RMK A01 T00111058  RH  060%=      5-min Rain = 0
KDC1 021146Z 02009KT 01/M06 A302 RMK A01 T00111058  RH  060%=      5-min Rain = 0
KDC1 021147Z 03009KT 01/M06 A302 RMK A01 T00121058  RH  060%=      5-min Rain = 0
KDC1 021148Z 03009KT 01/M06 A302 RMK A01 T00131057  RH  059%=      5-min Rain = 0
KDC1 021149Z 03009KT 02/M06 A302 RMK A01 T00151057  RH  059%=      5-min Rain = 0
KDC1 021150Z 03009KT 02/M06 A302 RMK A01 T00171057  RH  058%=      5-min Rain = 0
KDC1 021151Z 03009KT 02/M06 A302 RMK A01 T00191057  RH  057%=      5-min Rain = 0
KDC1 021152Z 03009KT 02/M06 A302 RMK A01 T00201057  RH  057%=      5-min Rain = 0
KDC1 021153Z 03008KT 02/M06 A302 RMK A01 T00221056  RH  056%=      5-min Rain = 0
KDC1 021154Z 03008KT 02/M06 A302 RMK A01 T00241055  RH  056%=      5-min Rain = 0
KDC1 021155Z 03008KT 03/M05 A302 RMK A01 T00251054  RH  056%=      5-min Rain = 0
KDC1 021156Z 04008KT 03/M05 A302 RMK A01 T00251054  RH  056%=      5-min Rain = 0
KDC1 021157Z 04008KT 03/M05 A302 RMK A01 T00251054  RH  056%=      5-min Rain = 0
KDC1 021158Z 04007KT 03/M05 A302 RMK A01 T00251054  RH  056%=      5-min Rain = 0
KDC1 021159Z 04007KT 03/M05 A302 RMK A01 T00251053  RH  056%=      5-min Rain = 0
KDC1 021200Z 04007KT 03/M05 A302 RMK A01 T00251052  RH  057%=      5-min Rain = 0
KDC1 021201Z 04007KT 03/M05 A302 RMK A01 T00251052  RH  057%=      5-min Rain = 0
KDC1 021202Z 04007KT 03/M05 A302 RMK A01 T00251051  RH  057%=      5-min Rain = 0
KDC1 021203Z 04007KT 03/M05 A302 RMK A01 T00251051  RH  057%=      5-min Rain = 0
KDC1 021204Z 04006KT 03/M05 A302 RMK A01 T00251051  RH  057%=      5-min Rain = 0
KDC1 021205Z 04007KT 02/M05 A302 RMK A01 T00241051  RH  058%=      5-min Rain = 0
KDC1 021206Z 03006KT 02/M05 A302 RMK A01 T00231051  RH  058%=      5-min Rain = 0
KDC1 021207Z 04006KT 02/M05 A3021 RMK A01 T00221052  RH  058%=      5-min Rain = 0
KDC1 021208Z 04006KT 02/M05 A3021 RMK A01 T00211052  RH  059%=      5-min Rain = 0
KDC1 021209Z 04006KT 02/M05 A3021 RMK A01 T00201051  RH  059%=      5-min Rain = 0
KDC1 021210Z 04005KT 02/M05 A3021 RMK A01 T00191052  RH  059%=      5-min Rain = 0
KDC1 021211Z 04005KT 02/M05 A3021 RMK A01 T00181052  RH  060%=      5-min Rain = 0
KDC1 021212Z 04005KT 02/M05 A3021 RMK A01 T00181052  RH  060%=      5-min Rain = 0
KDC1 021213Z 04004KT 02/M05 A3021 RMK A01 T00171052  RH  060%=      5-min Rain = 0
KDC1 021214Z 03004KT 02/M05 A3021 RMK A01 T00161053  RH  060%=      5-min Rain = 0
KDC1 021215Z 03004KT 02/M05 A3021 RMK A01 T00151054  RH  060%=      5-min Rain = 0
KDC1 021216Z 03004KT 01/M05 A3021 RMK A01 T00141054  RH  061%=      5-min Rain = 0
KDC1 021217Z 03005KT 01/M05 A3021 RMK A01 T00131054  RH  061%=      5-min Rain = 0
KDC1 021218Z 03005KT 01/M05 A3021 RMK A01 T00121054  RH  062%=      5-min Rain = 0
KDC1 021219Z 03005KT 01/M05 A3021 RMK A01 T00121054  RH  062%=      5-min Rain = 0
KDC1 021220Z 03005KT 01/M05 A3021 RMK A01 T00111053  RH  062%=      5-min Rain = 0
KDC1 021221Z 03005KT 01/M05 A3021 RMK A01 T00101052  RH  063%=      5-min Rain = 0
KDC1 021222Z 03006KT 01/M05 A3021 RMK A01 T00101052  RH  063%=      5-min Rain = 0
KDC1 021223Z 02006KT 01/M05 A3021 RMK A01 T00111051  RH  063%=      5-min Rain = 0
KDC1 021224Z 02007KT 01/M05 A3021 RMK A01 T00111050  RH  064%=      5-min Rain = 0
KDC1 021225Z 02007KT 01/M05 A3021 RMK A01 T00101050  RH  064%=      5-min Rain = 0
KDC1 021226Z 02007KT 01/M05 A3021 RMK A01 T00111050  RH  064%=      5-min Rain = 0
KDC1 021227Z 02006KT 01/M05 A3021 RMK A01 T00101050  RH  064%=      5-min Rain = 0
KDC1 021228Z 02007KT 01/M05 A3021 RMK A01 T00111049  RH  065%=      5-min Rain = 0
KDC1 021229Z 02007KT 01/M05 A3021 RMK A01 T00101049  RH  065%=      5-min Rain = 0
KDC1 021230Z 02007KT 01/M05 A3021 RMK A01 T00101049  RH  065%=      5-min Rain = 0
KDC1 021231Z 02006KT 01/M05 A3021 RMK A01 T00091049  RH  065%=      5-min Rain = 0
KDC1 021232Z 02006KT 01/M05 A3021 RMK A01 T00081049  RH  066%=      5-min Rain = 0
KDC1 021233Z 02006KT 01/M05 A3021 RMK A01 T00081049  RH  066%=      5-min Rain = 0
KDC1 021234Z 02006KT 01/M05 A3021 RMK A01 T00071049  RH  066%=      5-min Rain = 0
KDC1 021235Z 02006KT 01/M05 A3021 RMK A01 T00071049  RH  066%=      5-min Rain = 0
KDC1 021236Z 01006KT 01/M05 A3021 RMK A01 T00061049  RH  067%=      5-min Rain = 0
KDC1 021237Z 01005KT 01/M05 A3021 RMK A01 T00061049  RH  067%=      5-min Rain = 0
KDC1 021238Z 01005KT 01/M05 A3021 RMK A01 T00051050  RH  067%=      5-min Rain = 0
KDC1 021239Z 01005KT 00/M05 A3021 RMK A01 T00041049  RH  068%=      5-min Rain = 0
KDC1 021240Z 00005KT 00/M05 A3021 RMK A01 T00021049  RH  068%=      5-min Rain = 0
KDC1 021241Z 00005KT 00/M05 A3021 RMK A01 T00011051  RH  068%=      5-min Rain = 0
KDC1 021242Z 00005KT M00/M05 A3021 RMK A01 T10031054  RH  068%=      5-min Rain = 0
KDC1 021243Z 00005KT M01/M06 A3021 RMK A01 T10071055  RH  070%=      5-min Rain = 0
KDC1 021244Z 01006KT M01/M05 A3021 RMK A01 T10091054  RH  071%=      5-min Rain = 0
KDC1 021245Z 01006KT M01/M05 A3022 RMK A01 T10101054  RH  072%=      5-min Rain = 0
KDC1 021246Z 01006KT M01/M05 A3022 RMK A01 T10101054  RH  073%=      5-min Rain = 0
KDC1 021247Z 01006KT M01/M05 A3022 RMK A01 T10101052  RH  073%=      5-min Rain = 0
KDC1 021248Z 00006KT M01/M05 A3022 RMK A01 T10091052  RH  072%=      5-min Rain = 0
KDC1 021249Z 00006KT M01/M05 A3022 RMK A01 T10081053  RH  072%=      5-min Rain = 0
KDC1 021250Z 00006KT M01/M05 A3022 RMK A01 T10081053  RH  072%=      5-min Rain = 0
KDC1 021251Z 01006KT M01/M05 A3022 RMK A01 T10091053  RH  072%=      5-min Rain = 0
KDC1 021252Z 00005KT M01/M05 A3022 RMK A01 T10091053  RH  072%=      5-min Rain = 0
KDC1 021253Z 34005KT M01/M05 A3022 RMK A01 T10091053  RH  072%=      5-min Rain = 0
KDC1 021254Z 35005KT M01/M05 A3022 RMK A01 T10081053  RH  072%=      5-min Rain = 0
KDC1 021255Z 35006KT M01/M05 A3022 RMK A01 T10101053  RH  072%=      5-min Rain = 0
KDC1 021256Z 35006KT M01/M05 A3022 RMK A01 T10111053  RH  073%=      5-min Rain = 0
KDC1 021257Z 36006KT M01/M05 A3022 RMK A01 T10121052  RH  074%=      5-min Rain = 0
KDC1 021258Z 00006KT M01/M05 A3022 RMK A01 T10131052  RH  075%=      5-min Rain = 0
KDC1 021259Z 01005KT M01/M05 A3022 RMK A01 T10121052  RH  075%=      5-min Rain = 0
KDC1 021300Z 00005KT M01/M05 A3022 RMK A01 T10131052  RH  075%=      5-min Rain = 0
KDC1 021301Z 00006KT M01/M05 A3022 RMK A01 T10121052  RH  074%=      5-min Rain = 0
KDC1 021302Z 00006KT M01/M05 A3022 RMK A01 T10111053  RH  073%=      5-min Rain = 0
KDC1 021303Z 35006KT M01/M05 A3022 RMK A01 T10091053  RH  072%=      5-min Rain = 0
KDC1 021304Z 35006KT M01/M06 A3022 RMK A01 T10081055  RH  071%=      5-min Rain = 0
KDC1 021305Z 36006KT M01/M06 A3022 RMK A01 T10081056  RH  070%=      5-min Rain = 0
KDC1 021306Z 36006KT M01/M06 A3022 RMK A01 T10081056  RH  070%=      5-min Rain = 0
KDC1 021307Z 00005KT M01/M05 A3022 RMK A01 T10081054  RH  071%=      5-min Rain = 0
KDC1 021308Z 00005KT M01/M05 A3022 RMK A01 T10091054  RH  072%=      5-min Rain = 0
KDC1 021309Z 00006KT M01/M05 A3022 RMK A01 T10101054  RH  072%=      5-min Rain = 0
KDC1 021310Z 01006KT M01/M05 A3022 RMK A01 T10101054  RH  072%=      5-min Rain = 0
KDC1 021311Z 02006KT M01/M05 A3022 RMK A01 T10081052  RH  072%=      5-min Rain = 0
KDC1 021312Z 01007KT M01/M05 A3022 RMK A01 T10051051  RH  071%=      5-min Rain = 0
KDC1 021313Z 01006KT M00/M05 A3022 RMK A01 T10011050  RH  069%=      5-min Rain = 0
KDC1 021314Z 01006KT 00/05 A3022 RMK A01 T00000-52  RH  068%=      5-min Rain = 0
KDC1 021315Z 01006KT 00/M05 A3022 RMK A01 T00011052  RH  067%=      5-min Rain = 0
KDC1 021316Z 01006KT 00/M05 A3023 RMK A01 T00021053  RH  067%=      5-min Rain = 0
KDC1 021317Z 01006KT 00/M05 A3023 RMK A01 T00021053  RH  067%=      5-min Rain = 0
KDC1 021318Z 01007KT 00/M05 A3023 RMK A01 T00021053  RH  067%=      5-min Rain = 0
KDC1 021319Z 02007KT 00/M05 A3023 RMK A01 T00041051  RH  067%=      5-min Rain = 0
KDC1 021320Z 02007KT 01/M05 A3023 RMK A01 T00051050  RH  066%=      5-min Rain = 0
KDC1 021321Z 01006KT 01/M05 A3023 RMK A01 T00071049  RH  066%=      5-min Rain = 0
KDC1 021322Z 00006KT 01/M05 A3023 RMK A01 T00081050  RH  065%=      5-min Rain = 0
KDC1 021323Z 01006KT 01/M05 A3023 RMK A01 T00071052  RH  065%=      5-min Rain = 0
KDC1 021324Z 01006KT 01/M05 A3023 RMK A01 T00051054  RH  065%=      5-min Rain = 0
KDC1 021325Z 01006KT 00/M05 A3023 RMK A01 T00041054  RH  065%=      5-min Rain = 0
KDC1 021326Z 01006KT 00/M06 A3023 RMK A01 T00031055  RH  065%=      5-min Rain = 0
KDC1 021327Z 01007KT 00/M05 A3023 RMK A01 T00021054  RH  066%=      5-min Rain = 0
KDC1 021328Z 01007KT 00/M05 A3023 RMK A01 T00021053  RH  066%=      5-min Rain = 0
KDC1 021329Z 02007KT 00/M05 A3023 RMK A01 T00021053  RH  067%=      5-min Rain = 0
KDC1 021330Z 02007KT 00/M05 A3023 RMK A01 T00031051  RH  067%=      5-min Rain = 0
KDC1 021331Z 01007KT 00/M05 A3023 RMK A01 T00041050  RH  067%=      5-min Rain = 0
KDC1 021332Z 02007KT 00/M05 A3023 RMK A01 T00041050  RH  067%=      5-min Rain = 0
KDC1 021333Z 02007KT 01/M05 A3023 RMK A01 T00051050  RH  067%=      5-min Rain = 0
KDC1 021334Z 02007KT 01/M05 A3023 RMK A01 T00051050  RH  066%=      5-min Rain = 0
KDC1 021335Z 02007KT 01/M05 A3023 RMK A01 T00051051  RH  066%=      5-min Rain = 0
KDC1 021336Z 02007KT 01/M05 A3023 RMK A01 T00051050  RH  066%=      5-min Rain = 0
KDC1 021337Z 00006KT 01/M05 A3023 RMK A01 T00051050  RH  066%=      5-min Rain = 0
KDC1 021338Z 36006KT 01/M05 A3023 RMK A01 T00051051  RH  066%=      5-min Rain = 0
KDC1 021339Z 36005KT 00/M05 A3023 RMK A01 T00031052  RH  066%=      5-min Rain = 0
KDC1 021340Z 36005KT 00/M05 A3023 RMK A01 T00021053  RH  066%=      5-min Rain = 0
KDC1 021341Z 01006KT 00/06 A3024 RMK A01 T00-00-56  RH  066%=      5-min Rain = 0
KDC1 021342Z 36005KT M00/M05 A3024 RMK A01 T10011054  RH  067%=      5-min Rain = 0
KDC1 021343Z 35005KT M00/M05 A3024 RMK A01 T10011054  RH  067%=      5-min Rain = 0
KDC1 021344Z 00006KT M00/M06 A3024 RMK A01 T10021057  RH  067%=      5-min Rain = 0
KDC1 021345Z 36006KT M00/M06 A3024 RMK A01 T10041057  RH  067%=      5-min Rain = 0
KDC1 021346Z 35006KT M00/M06 A3024 RMK A01 T10041056  RH  068%=      5-min Rain = 0
KDC1 021347Z 35005KT M00/M06 A3024 RMK A01 T10041055  RH  068%=      5-min Rain = 0
KDC1 021348Z 35005KT M01/M06 A3024 RMK A01 T10051057  RH  068%=      5-min Rain = 0
KDC1 021349Z 35006KT M01/M06 A3024 RMK A01 T10071058  RH  068%=      5-min Rain = 0
KDC1 021350Z 35006KT M01/M06 A3024 RMK A01 T10081058  RH  069%=      5-min Rain = 0
KDC1 021351Z 36006KT M01/M06 A3024 RMK A01 T10091058  RH  069%=      5-min Rain = 0
KDC1 021352Z 01006KT M01/M06 A3024 RMK A01 T10101058  RH  070%=      5-min Rain = 0
KDC1 021353Z 36006KT M01/M06 A3024 RMK A01 T10091055  RH  071%=      5-min Rain = 0
KDC1 021354Z 35005KT M01/M06 A3024 RMK A01 T10081055  RH  071%=      5-min Rain = 0
KDC1 021355Z 00006KT M01/M06 A3024 RMK A01 T10081055  RH  070%=      5-min Rain = 0
KDC1 021356Z 00005KT M01/M06 A3024 RMK A01 T10071055  RH  070%=      5-min Rain = 0
KDC1 021357Z 35006KT M01/M06 A3024 RMK A01 T10071055  RH  070%=      5-min Rain = 0
KDC1 021358Z 36006KT M01/M06 A3025 RMK A01 T10071055  RH  070%=      5-min Rain = 0
KDC1 021359Z 00006KT M01/M06 A3025 RMK A01 T10071055  RH  070%=      5-min Rain = 0
KDC1 021400Z 00006KT M01/M06 A3025 RMK A01 T10071055  RH  070%=      5-min Rain = 0
KDC1 021401Z 00006KT M01/M05 A3025 RMK A01 T10061053  RH  070%=      5-min Rain = 0
KDC1 021402Z 00006KT M00/M05 A3025 RMK A01 T10041052  RH  070%=      5-min Rain = 0
KDC1 021403Z 00006KT M00/M05 A3025 RMK A01 T10021050  RH  070%=      5-min Rain = 0
KDC1 021404Z 00006KT M00/M05 A3025 RMK A01 T10011050  RH  070%=      5-min Rain = 0
KDC1 021405Z 01005KT 00/05 A3025 RMK A01 T00-00-50  RH  069%=      5-min Rain = 0
KDC1 021406Z 00005KT 00/05 A3025 RMK A01 T00000-50  RH  069%=      5-min Rain = 0
KDC1 021407Z 00006KT 00/M05 A3025 RMK A01 T00011050  RH  069%=      5-min Rain = 0
KDC1 021408Z 01006KT 00/M05 A3025 RMK A01 T00011050  RH  068%=      5-min Rain = 0
KDC1 021409Z 01006KT 00/M05 A3025 RMK A01 T00011051  RH  068%=      5-min Rain = 0
KDC1 021410Z 02006KT 00/M05 A3025 RMK A01 T00011051  RH  068%=      5-min Rain = 0
KDC1 021411Z 02006KT 00/M05 A3025 RMK A01 T00021050  RH  068%=      5-min Rain = 0
KDC1 021412Z 02006KT 00/M05 A3025 RMK A01 T00021048  RH  069%=      5-min Rain = 0
KDC1 021413Z 02006KT 00/M05 A3025 RMK A01 T00031048  RH  069%=      5-min Rain = 0
KDC1 021414Z 03006KT 00/M05 A3025 RMK A01 T00041047  RH  069%=      5-min Rain = 0
KDC1 021415Z 04006KT 01/M05 A3025 RMK A01 T00051046  RH  069%=      5-min Rain = 0
KDC1 021416Z 04005KT 01/M05 A3025 RMK A01 T00061045  RH  069%=      5-min Rain = 0
KDC1 021417Z 04007KT 01/M04 A3025 RMK A01 T00081044  RH  068%=      5-min Rain = 0
KDC1 021418Z 03007KT 01/M04 A3025 RMK A01 T00111042  RH  068%=      5-min Rain = 0
KDC1 021419Z 03008KT 01/M04 A3025 RMK A01 T00141040  RH  067%=      5-min Rain = 0
KDC1 021420Z 03008KT 02/M04 A3025 RMK A01 T00171039  RH  066%=      5-min Rain = 0
KDC1 021421Z 03007KT 02/M04 A3025 RMK A01 T00191039  RH  065%=      5-min Rain = 0
KDC1 021422Z 03007KT 02/M04 A3026 RMK A01 T00201040  RH  065%=      5-min Rain = 0
KDC1 021423Z 03007KT 02/M04 A3026 RMK A01 T00211039  RH  064%=      5-min Rain = 0
KDC1 021424Z 03009KT 02/M04 A3026 RMK A01 T00221039  RH  064%=      5-min Rain = 0
KDC1 021425Z 04008KT 02/M04 A3026 RMK A01 T00231039  RH  064%=      5-min Rain = 0
KDC1 021426Z 03009KT 02/M04 A3026 RMK A01 T00241038  RH  063%=      5-min Rain = 0
KDC1 021427Z 03007KT 03/M04 A3026 RMK A01 T00251038  RH  063%=      5-min Rain = 0
KDC1 021428Z 03009KT 03/M04 A3026 RMK A01 T00261038  RH  063%=      5-min Rain = 0
KDC1 021429Z 03009KT 03/M04 A3026 RMK A01 T00271038  RH  062%=      5-min Rain = 0
KDC1 021430Z 03008KT 03/M04 A3026 RMK A01 T00271038  RH  062%=      5-min Rain = 0
KDC1 021431Z 03008KT 03/M04 A3026 RMK A01 T00281038  RH  062%=      5-min Rain = 0
KDC1 021432Z 03007KT 03/M04 A3026 RMK A01 T00281038  RH  062%=      5-min Rain = 0
KDC1 021433Z 03007KT 03/M04 A3026 RMK A01 T00281038  RH  062%=      5-min Rain = 0
KDC1 021434Z 03007KT 03/M04 A3026 RMK A01 T00281038  RH  062%=      5-min Rain = 0
KDC1 021435Z 03006KT 03/M04 A3026 RMK A01 T00281038  RH  062%=      5-min Rain = 0
KDC1 021436Z 03007KT 03/M04 A3026 RMK A01 T00281038  RH  062%=      5-min Rain = 0
KDC1 021437Z 03009KT 03/M04 A3026 RMK A01 T00291037  RH  062%=      5-min Rain = 0
KDC1 021438Z 03009KT 03/M04 A3026 RMK A01 T00291037  RH  062%=      5-min Rain = 0
KDC1 021439Z 03010KT 03/M04 A3026 RMK A01 T00301037  RH  061%=      5-min Rain = 0
KDC1 021440Z 03009KT 03/M04 A3027 RMK A01 T00311037  RH  061%=      5-min Rain = 0
KDC1 021441Z 03009KT 03/M04 A3027 RMK A01 T00321036  RH  061%=      5-min Rain = 0
KDC1 021442Z 03007KT 03/M04 A3027 RMK A01 T00321036  RH  061%=      5-min Rain = 0
KDC1 021443Z 03009KT 03/M04 A3027 RMK A01 T00331036  RH  061%=      5-min Rain = 0
KDC1 021444Z 03008KT 03/M04 A3027 RMK A01 T00331036  RH  060%=      5-min Rain = 0
KDC1 021445Z 03008KT 03/M04 A3027 RMK A01 T00341036  RH  060%=      5-min Rain = 0
KDC1 021446Z 02006KT 03/M04 A3027 RMK A01 T00341036  RH  060%=      5-min Rain = 0
KDC1 021447Z 03007KT 03/M04 A3028 RMK A01 T00341036  RH  060%=      5-min Rain = 0
KDC1 021448Z 02007KT 04/M04 A3028 RMK A01 T00351035  RH  060%=      5-min Rain = 0
KDC1 021449Z 02007KT 04/M04 A3028 RMK A01 T00351035  RH  060%=      5-min Rain = 0
KDC1 021450Z 02008KT 04/M04 A3028 RMK A01 T00361035  RH  060%=      5-min Rain = 0
KDC1 021451Z 02008KT 04/M04 A3028 RMK A01 T00361035  RH  060%=      5-min Rain = 0
KDC1 021452Z 02007KT 04/M04 A3028 RMK A01 T00361035  RH  060%=      5-min Rain = 0
KDC1 021453Z 02007KT 04/M03 A3028 RMK A01 T00371034  RH  060%=      5-min Rain = 0
KDC1 021454Z 02007KT 04/M03 A3028 RMK A01 T00371033  RH  060%=      5-min Rain = 0
KDC1 021455Z 01007KT 04/M03 A3028 RMK A01 T00381033  RH  060%=      5-min Rain = 0
KDC1 021456Z 01008KT 04/M03 A3028 RMK A01 T00391032  RH  060%=      5-min Rain = 0
KDC1 021457Z 02007KT 04/M03 A3029 RMK A01 T00391032  RH  060%=      5-min Rain = 0
KDC1 021458Z 01007KT 04/M03 A3029 RMK A01 T00381032  RH  060%=      5-min Rain = 0
KDC1 021459Z 02008KT 04/M03 A3029 RMK A01 T00391032  RH  060%=      5-min Rain = 0
KDC1 021500Z 02008KT 04/M03 A3029 RMK A01 T00391032  RH  060%=      5-min Rain = 0
KDC1 021501Z 02008KT 04/M03 A3029 RMK A01 T00391032  RH  060%=      5-min Rain = 0
KDC1 021502Z 02010KT 04/M03 A3029 RMK A01 T00401032  RH  060%=      5-min Rain = 0
KDC1 021503Z 02010KT 04/M03 A3029 RMK A01 T00401032  RH  059%=      5-min Rain = 0
KDC1 021504Z 02008KT 04/M03 A3029 RMK A01 T00411032  RH  059%=      5-min Rain = 0
KDC1 021505Z 02011KT 04/M03 A3029 RMK A01 T00411032  RH  059%=      5-min Rain = 0
KDC1 021506Z 02012KT 04/M03 A3029 RMK A01 T00421033  RH  058%=      5-min Rain = 0
KDC1 021507Z 03013KT 04/M03 A3029 RMK A01 T00421034  RH  058%=      5-min Rain = 0
KDC1 021508Z 02011KT 04/M04 A3029 RMK A01 T00421035  RH  057%=      5-min Rain = 0
KDC1 021509Z 02013KT 04/M04 A3029 RMK A01 T00431035  RH  057%=      5-min Rain = 0
KDC1 021510Z 03013KT 04/M04 A3029 RMK A01 T00431035  RH  057%=      5-min Rain = 0
KDC1 021511Z 03012KT 04/M04 A3029 RMK A01 T00431036  RH  056%=      5-min Rain = 0
KDC1 021512Z 03012KT 04/M04 A303 RMK A01 T00441036  RH  056%=      5-min Rain = 0
KDC1 021513Z 03014KT 04/M04 A303 RMK A01 T00441037  RH  056%=      5-min Rain = 0
KDC1 021514Z 03017KT 04/M04 A303 RMK A01 T00441037  RH  056%=      5-min Rain = 0
KDC1 021515Z 04014KT 04/M04 A303 RMK A01 T00441038  RH  055%=      5-min Rain = 0
KDC1 021516Z 03011KT 04/M04 A303 RMK A01 T00431039  RH  055%=      5-min Rain = 0
KDC1 021517Z 04015KT 04/M04 A303 RMK A01 T00431038  RH  055%=      5-min Rain = 0
KDC1 021518Z 03012KT 04/M04 A303 RMK A01 T00441039  RH  055%=      5-min Rain = 0
KDC1 021519Z 03014KT 04/M04 A303 RMK A01 T00441038  RH  055%=      5-min Rain = 0
KDC1 021520Z 03010KT 04/M04 A303 RMK A01 T00441039  RH  055%=      5-min Rain = 0
KDC1 021521Z 03011KT 04/M04 A303 RMK A01 T00441038  RH  055%=      5-min Rain = 0
KDC1 021522Z 03012KT 05/M04 A303 RMK A01 T00451037  RH  055%=      5-min Rain = 0
KDC1 021523Z 04014KT 05/M04 A303 RMK A01 T00451038  RH  055%=      5-min Rain = 0
KDC1 021524Z 04012KT 05/M04 A303 RMK A01 T00451039  RH  054%=      5-min Rain = 0
KDC1 021525Z 04014KT 05/M04 A303 RMK A01 T00451039  RH  054%=      5-min Rain = 0
KDC1 021526Z 05013KT 05/M04 A303 RMK A01 T00451039  RH  054%=      5-min Rain = 0
KDC1 021527Z 05013KT 05/M04 A303 RMK A01 T00451039  RH  054%=      5-min Rain = 0
KDC1 021528Z 04012KT 05/M04 A303 RMK A01 T00451039  RH  054%=      5-min Rain = 0
KDC1 021529Z 03012KT 05/M04 A303 RMK A01 T00461039  RH  054%=      5-min Rain = 0
KDC1 021530Z 03012G18KT 05/M04 A303 RMK A01 T00471038  RH  054%=      5-min Rain = 0
KDC1 021531Z 04015KT 05/M04 A303 RMK A01 T00471039  RH  054%=      5-min Rain = 0
KDC1 021532Z 04015KT 05/M04 A303 RMK A01 T00471040  RH  053%=      5-min Rain = 0
KDC1 021533Z 04015KT 05/M04 A303 RMK A01 T00461041  RH  053%=      5-min Rain = 0
KDC1 021534Z 04016KT 05/M04 A303 RMK A01 T00461041  RH  053%=      5-min Rain = 0
KDC1 021535Z 03016KT 05/M04 A3031 RMK A01 T00461042  RH  053%=      5-min Rain = 0
KDC1 021536Z 03016KT 05/M04 A3031 RMK A01 T00451042  RH  053%=      5-min Rain = 0
KDC1 021537Z 04017KT 05/M04 A3031 RMK A01 T00451042  RH  053%=      5-min Rain = 0
KDC1 021538Z 04015KT 05/M04 A3031 RMK A01 T00451043  RH  053%=      5-min Rain = 0
KDC1 021539Z 04014G22KT 05/M04 A3031 RMK A01 T00451042  RH  053%=      5-min Rain = 0
KDC1 021540Z 04018KT 05/M04 A3031 RMK A01 T00461043  RH  053%=      5-min Rain = 0
KDC1 021541Z 04014KT 05/M04 A3031 RMK A01 T00461044  RH  052%=      5-min Rain = 0
KDC1 021542Z 05016KT 05/M04 A3031 RMK A01 T00461043  RH  052%=      5-min Rain = 0
KDC1 021543Z 04015KT 05/M04 A3031 RMK A01 T00471043  RH  052%=      5-min Rain = 0
KDC1 021544Z 04015KT 05/M04 A3031 RMK A01 T00481043  RH  052%=      5-min Rain = 0
KDC1 021545Z 04016KT 05/M04 A3031 RMK A01 T00471043  RH  052%=      5-min Rain = 0
KDC1 021546Z 04017KT 05/M04 A3031 RMK A01 T00481044  RH  051%=      5-min Rain = 0
KDC1 021547Z 04014G20KT 05/M04 A3031 RMK A01 T00471044  RH  051%=      5-min Rain = 0
KDC1 021548Z 04015KT 05/M04 A3031 RMK A01 T00471044  RH  051%=      5-min Rain = 0
KDC1 021549Z 04015KT 05/M04 A3031 RMK A01 T00471044  RH  052%=      5-min Rain = 0
KDC1 021550Z 04016KT 05/M04 A3031 RMK A01 T00471044  RH  052%=      5-min Rain = 0
KDC1 021551Z 04014KT 05/M04 A3031 RMK A01 T00471044  RH  052%=      5-min Rain = 0
KDC1 021552Z 04014G19KT 05/M04 A3031 RMK A01 T00481043  RH  052%=      5-min Rain = 0
KDC1 021553Z 04015KT 05/M04 A3031 RMK A01 T00481043  RH  051%=      5-min Rain = 0
KDC1 021554Z 04014G19KT 05/M04 A3031 RMK A01 T00481044  RH  051%=      5-min Rain = 0
KDC1 021555Z 03015KT 05/M04 A3032 RMK A01 T00491043  RH  051%=      5-min Rain = 0
KDC1 021556Z 04012KT 05/M04 A3032 RMK A01 T00501043  RH  051%=      5-min Rain = 0
KDC1 021557Z 03012KT 05/M04 A3031 RMK A01 T00511042  RH  051%=      5-min Rain = 0
KDC1 021558Z 04014KT 05/M04 A3032 RMK A01 T00511043  RH  051%=      5-min Rain = 0
KDC1 021559Z 04014KT 05/M04 A3032 RMK A01 T00511043  RH  051%=      5-min Rain = 0
KDC1 021600Z 03012KT 05/M04 A3032 RMK A01 T00511043  RH  051%=      5-min Rain = 0
KDC1 021601Z 03013G19KT 05/M04 A3032 RMK A01 T00511042  RH  051%=      5-min Rain = 0
KDC1 021602Z 04014G19KT 05/M04 A3032 RMK A01 T00511042  RH  051%=      5-min Rain = 0
KDC1 021603Z 04015KT 05/M04 A3032 RMK A01 T00511043  RH  051%=      5-min Rain = 0
KDC1 021604Z 03014KT 05/M04 A3032 RMK A01 T00501044  RH  050%=      5-min Rain = 0
KDC1 021605Z 04013KT 05/M05 A3032 RMK A01 T00501045  RH  050%=      5-min Rain = 0
KDC1 021606Z 05014KT 05/M04 A3032 RMK A01 T00511044  RH  050%=      5-min Rain = 0
KDC1 021607Z 04017KT 05/M05 A3032 RMK A01 T00511045  RH  050%=      5-min Rain = 0
KDC1 021608Z 04016KT 05/M05 A3032 RMK A01 T00501046  RH  050%=      5-min Rain = 0
KDC1 021609Z 04015KT 05/M05 A3032 RMK A01 T00501046  RH  050%=      5-min Rain = 0
KDC1 021610Z 04016KT 05/M05 A3032 RMK A01 T00501046  RH  050%=      5-min Rain = 0
KDC1 021611Z 03013KT 05/M05 A3031 RMK A01 T00511047  RH  049%=      5-min Rain = 0
KDC1 021612Z 04013KT 05/M05 A3031 RMK A01 T00511046  RH  050%=      5-min Rain = 0
KDC1 021613Z 04016G21KT 05/M05 A3031 RMK A01 T00531046  RH  049%=      5-min Rain = 0
KDC1 021614Z 03015G20KT 05/M05 A3031 RMK A01 T00531046  RH  049%=      5-min Rain = 0
KDC1 021615Z 04017G22KT 05/M05 A3032 RMK A01 T00531046  RH  049%=      5-min Rain = 0
KDC1 021616Z 02016G21KT 05/M05 A3032 RMK A01 T00521048  RH  049%=      5-min Rain = 0
KDC1 021617Z 02016KT 05/M05 A3032 RMK A01 T00511047  RH  049%=      5-min Rain = 0
KDC1 021618Z 02021KT 05/M05 A3032 RMK A01 T00511047  RH  049%=      5-min Rain = 0
KDC1 021619Z 03018KT 05/M05 A3032 RMK A01 T00511047  RH  049%=      5-min Rain = 0
KDC1 021620Z 04017KT 05/M05 A3032 RMK A01 T00511047  RH  049%=      5-min Rain = 0
KDC1 021621Z 04018KT 05/M05 A3032 RMK A01 T00511048  RH  049%=      5-min Rain = 0
KDC1 021622Z 04014G19KT 05/M05 A3032 RMK A01 T00511048  RH  049%=      5-min Rain = 0
KDC1 021623Z 03017KT 05/M05 A3032 RMK A01 T00531047  RH  049%=      5-min Rain = 0
KDC1 021624Z 03016KT 05/M05 A3032 RMK A01 T00531048  RH  048%=      5-min Rain = 0
KDC1 021625Z 04015KT 05/M05 A3032 RMK A01 T00531048  RH  048%=      5-min Rain = 0
KDC1 021626Z 04013KT 05/M05 A3032 RMK A01 T00531048  RH  048%=      5-min Rain = 0
KDC1 021627Z 03014KT 05/M05 A3032 RMK A01 T00541048  RH  048%=      5-min Rain = 0
KDC1 021628Z 04015G20KT 06/M05 A3032 RMK A01 T00551047  RH  048%=      5-min Rain = 0
KDC1 021629Z 04017KT 06/M05 A3032 RMK A01 T00551048  RH  047%=      5-min Rain = 0
KDC1 021630Z 03014G20KT 06/M05 A3031 RMK A01 T00551049  RH  047%=      5-min Rain = 0
KDC1 021631Z 04016KT 06/M05 A3032 RMK A01 T00571048  RH  047%=      5-min Rain = 0
KDC1 021632Z 04015KT 06/M05 A3032 RMK A01 T00571049  RH  046%=      5-min Rain = 0
KDC1 021633Z 04014KT 06/M05 A3032 RMK A01 T00561050  RH  046%=      5-min Rain = 0
KDC1 021634Z 03015KT 06/M05 A3032 RMK A01 T00561050  RH  047%=      5-min Rain = 0
KDC1 021635Z 02015KT 06/M05 A3032 RMK A01 T00561049  RH  047%=      5-min Rain = 0
KDC1 021636Z 05014KT 06/M05 A3032 RMK A01 T00561048  RH  047%=      5-min Rain = 0
KDC1 021637Z 04016KT 06/M05 A3032 RMK A01 T00571049  RH  046%=      5-min Rain = 0
KDC1 021638Z 03017KT 06/M05 A3032 RMK A01 T00571049  RH  046%=      5-min Rain = 0
KDC1 021639Z 04020KT 06/M05 A3032 RMK A01 T00551051  RH  046%=      5-min Rain = 0
KDC1 021640Z 04018KT 05/M05 A3032 RMK A01 T00541050  RH  047%=      5-min Rain = 0
KDC1 021641Z 04015KT 05/M05 A3032 RMK A01 T00541050  RH  047%=      5-min Rain = 0
KDC1 021642Z 04014KT 05/M05 A3032 RMK A01 T00541050  RH  047%=      5-min Rain = 0
KDC1 021643Z 04014KT 06/M05 A3032 RMK A01 T00561049  RH  047%=      5-min Rain = 0
KDC1 021644Z 03016KT 06/M05 A3032 RMK A01 T00571049  RH  046%=      5-min Rain = 0
KDC1 021645Z 04016KT 06/M05 A3032 RMK A01 T00561049  RH  047%=      5-min Rain = 0
KDC1 021646Z 04014KT 06/M05 A3032 RMK A01 T00561049  RH  047%=      5-min Rain = 0
KDC1 021647Z 04013KT 06/M05 A3032 RMK A01 T00571048  RH  047%=      5-min Rain = 0
KDC1 021648Z 02013KT 06/M05 A3032 RMK A01 T00581048  RH  047%=      5-min Rain = 0
KDC1 021649Z 01014KT 06/M05 A3032 RMK A01 T00591047  RH  047%=      5-min Rain = 0
KDC1 021650Z 02014G19KT 06/M05 A3032 RMK A01 T00591048  RH  046%=      5-min Rain = 0
KDC1 021651Z 03016KT 06/M05 A3032 RMK A01 T00581047  RH  047%=      5-min Rain = 0
KDC1 021652Z 02014KT 06/M05 A3032 RMK A01 T00581048  RH  047%=      5-min Rain = 0
KDC1 021653Z 02014G19KT 06/M05 A3032 RMK A01 T00581047  RH  047%=      5-min Rain = 0
KDC1 021654Z 02018KT 06/M05 A3032 RMK A01 T00591048  RH  046%=      5-min Rain = 0
KDC1 021655Z 02016KT 06/M05 A3032 RMK A01 T00561050  RH  046%=      5-min Rain = 0
KDC1 021656Z 03013KT 06/M05 A3032 RMK A01 T00561048  RH  047%=      5-min Rain = 0
KDC1 021657Z 02011KT 06/M05 A3032 RMK A01 T00581047  RH  047%=      5-min Rain = 0
KDC1 021658Z 02015KT 06/M05 A3032 RMK A01 T00591048  RH  046%=      5-min Rain = 0
KDC1 021659Z 02017KT 06/M05 A3032 RMK A01 T00591049  RH  046%=      5-min Rain = 0
KDC1 021700Z 03016KT 06/M05 A3032 RMK A01 T00571049  RH  046%=      5-min Rain = 0
KDC1 021701Z 03016KT 06/M05 A3032 RMK A01 T00581049  RH  046%=      5-min Rain = 0
KDC1 021702Z 04013KT 06/M05 A3032 RMK A01 T00581048  RH  046%=      5-min Rain = 0
KDC1 021703Z 04014KT 06/M05 A3032 RMK A01 T00601048  RH  046%=      5-min Rain = 0
KDC1 021704Z 05017KT 06/M05 A3032 RMK A01 T00611048  RH  045%=      5-min Rain = 0
KDC1 021705Z 05014KT 06/M05 A3032 RMK A01 T00601049  RH  045%=      5-min Rain = 0
KDC1 021706Z 04016KT 06/M05 A3032 RMK A01 T00601049  RH  046%=      5-min Rain = 0
KDC1 021707Z 04018G24KT 06/M05 A3032 RMK A01 T00591049  RH  046%=      5-min Rain = 0
KDC1 021708Z 04016KT 06/M05 A3032 RMK A01 T00591049  RH  046%=      5-min Rain = 0
KDC1 021709Z 04016KT 06/M05 A3033 RMK A01 T00601050  RH  045%=      5-min Rain = 0
KDC1 021710Z 04014G19KT 06/M05 A3032 RMK A01 T00591050  RH  045%=      5-min Rain = 0
KDC1 021711Z 04015G21KT 06/M05 A3032 RMK A01 T00591049  RH  046%=      5-min Rain = 0
KDC1 021712Z 05016KT 06/M05 A3032 RMK A01 T00591049  RH  046%=      5-min Rain = 0
KDC1 021713Z 05015KT 06/M05 A3032 RMK A01 T00591049  RH  046%=      5-min Rain = 0
KDC1 021714Z 04016KT 06/M05 A3032 RMK A01 T00601049  RH  046%=      5-min Rain = 0
KDC1 021715Z 04016KT 06/M05 A3032 RMK A01 T00601049  RH  045%=      5-min Rain = 0
KDC1 021716Z 05016KT 06/M05 A3032 RMK A01 T00591049  RH  046%=      5-min Rain = 0
KDC1 021717Z 04016G22KT 06/M05 A3032 RMK A01 T00601050  RH  045%=      5-min Rain = 0
KDC1 021718Z 05016KT 06/M05 A3032 RMK A01 T00601051  RH  045%=      5-min Rain = 0
KDC1 021719Z 05015G20KT 06/M05 A3032 RMK A01 T00601052  RH  044%=      5-min Rain = 0
KDC1 021720Z 05018KT 06/M05 A3032 RMK A01 T00601052  RH  045%=      5-min Rain = 0
KDC1 021721Z 04019KT 06/M05 A3032 RMK A01 T00591052  RH  045%=      5-min Rain = 0
KDC1 021722Z 04019KT 06/M05 A3032 RMK A01 T00581052  RH  045%=      5-min Rain = 0
KDC1 021723Z 05018KT 06/M05 A3032 RMK A01 T00571053  RH  045%=      5-min Rain = 0
KDC1 021724Z 05015KT 06/M05 A3032 RMK A01 T00561052  RH  046%=      5-min Rain = 0
KDC1 021725Z 05016KT 06/M05 A3032 RMK A01 T00581051  RH  045%=      5-min Rain = 0
KDC1 021726Z 05014KT 06/M05 A3032 RMK A01 T00591051  RH  045%=      5-min Rain = 0
KDC1 021727Z 04015KT 06/M05 A3032 RMK A01 T00591051  RH  045%=      5-min Rain = 0
KDC1 021728Z 04016KT 06/M05 A3032 RMK A01 T00601051  RH  045%=      5-min Rain = 0
KDC1 021729Z 03017KT 06/M05 A3032 RMK A01 T00601052  RH  044%=      5-min Rain = 0
KDC1 021730Z 04018KT 06/M05 A3032 RMK A01 T00591052  RH  045%=      5-min Rain = 0
KDC1 021731Z 03017KT 06/M05 A3032 RMK A01 T00591052  RH  045%=      5-min Rain = 0
KDC1 021732Z 04017KT 06/M05 A3032 RMK A01 T00581052  RH  045%=      5-min Rain = 0
KDC1 021733Z 04013G20KT 06/M05 A3032 RMK A01 T00601051  RH  045%=      5-min Rain = 0
KDC1 021734Z 05015KT 06/M05 A3032 RMK A01 T00621050  RH  044%=      5-min Rain = 0
KDC1 021735Z 04014KT 06/M05 A3032 RMK A01 T00611051  RH  044%=      5-min Rain = 0
KDC1 021736Z 05015KT 06/M05 A3032 RMK A01 T00601051  RH  044%=      5-min Rain = 0
KDC1 021737Z 05016KT 06/M05 A3032 RMK A01 T00601052  RH  045%=      5-min Rain = 0
KDC1 021738Z 05018KT 06/M05 A3032 RMK A01 T00601052  RH  045%=      5-min Rain = 0
KDC1 021739Z 05015KT 06/M05 A3032 RMK A01 T00591053  RH  045%=      5-min Rain = 0
KDC1 021740Z 04015KT 06/M05 A3032 RMK A01 T00591052  RH  045%=      5-min Rain = 0
KDC1 021741Z 04015KT 06/M05 A3032 RMK A01 T00591052  RH  045%=      5-min Rain = 0
KDC1 021742Z 04017KT 06/M05 A3032 RMK A01 T00601052  RH  045%=      5-min Rain = 0
KDC1 021743Z 04016KT 06/M05 A3032 RMK A01 T00601052  RH  044%=      5-min Rain = 0
KDC1 021744Z 04011KT 06/M05 A3032 RMK A01 T00601053  RH  044%=      5-min Rain = 0
KDC1 021745Z 05012KT 06/M05 A3031 RMK A01 T00611053  RH  044%=      5-min Rain = 0
KDC1 021746Z 05013KT 06/M05 A3032 RMK A01 T00631052  RH  043%=      5-min Rain = 0
KDC1 021747Z 04013KT 07/M05 A3032 RMK A01 T00651051  RH  043%=      5-min Rain = 0
KDC1 021748Z 03014KT 07/M05 A3032 RMK A01 T00661051  RH  043%=      5-min Rain = 0
KDC1 021749Z 04012G17KT 06/M05 A3031 RMK A01 T00641052  RH  043%=      5-min Rain = 0
KDC1 021750Z 04014KT 07/M05 A3031 RMK A01 T00661050  RH  043%=      5-min Rain = 0
KDC1 021751Z 04012G17KT 07/M05 A3031 RMK A01 T00661052  RH  043%=      5-min Rain = 0
KDC1 021752Z 03015KT 07/M05 A3031 RMK A01 T00651052  RH  043%=      5-min Rain = 0
KDC1 021753Z 03013KT 07/M05 A3031 RMK A01 T00651053  RH  043%=      5-min Rain = 0
KDC1 021754Z 03012KT 07/M05 A3031 RMK A01 T00651053  RH  043%=      5-min Rain = 0
KDC1 021755Z 04014KT 07/M05 A3031 RMK A01 T00671051  RH  043%=      5-min Rain = 0
KDC1 021756Z 02014G19KT 07/M05 A3031 RMK A01 T00681052  RH  042%=      5-min Rain = 0
KDC1 021757Z 03012KT 07/M05 A3031 RMK A01 T00681052  RH  042%=      5-min Rain = 0
KDC1 021758Z 04013KT 07/M05 A3031 RMK A01 T00671053  RH  042%=      5-min Rain = 0
KDC1 021759Z 04010KT 07/M05 A3031 RMK A01 T00661053  RH  042%=      5-min Rain = 0
KDC1 021800Z 04014KT 07/M05 A3031 RMK A01 T00671051  RH  042%=      5-min Rain = 0
KDC1 021801Z 05014KT 07/M05 A3031 RMK A01 T00681052  RH  042%=      5-min Rain = 0
KDC1 021802Z 04015KT 07/M05 A3031 RMK A01 T00661054  RH  042%=      5-min Rain = 0
KDC1 021803Z 03014KT 07/M05 A3031 RMK A01 T00661054  RH  042%=      5-min Rain = 0
KDC1 021804Z 04013KT 07/M06 A3031 RMK A01 T00671055  RH  042%=      5-min Rain = 0
KDC1 021805Z 03011KT 07/M06 A3031 RMK A01 T00651055  RH  042%=      5-min Rain = 0
KDC1 021806Z 04014KT 07/M05 A3031 RMK A01 T00671052  RH  042%=      5-min Rain = 0
KDC1 021807Z 04016KT 07/M05 A3031 RMK A01 T00691054  RH  041%=      5-min Rain = 0
KDC1 021808Z 03015KT 07/M06 A3031 RMK A01 T00681056  RH  041%=      5-min Rain = 0
KDC1 021809Z 03014KT 07/M06 A3031 RMK A01 T00661056  RH  041%=      5-min Rain = 0
KDC1 021810Z 03011G16KT 07/M06 A3031 RMK A01 T00661056  RH  041%=      5-min Rain = 0
KDC1 021811Z 03013KT 07/M05 A303 RMK A01 T00661054  RH  042%=      5-min Rain = 0
KDC1 021812Z 03015G20KT 07/M05 A303 RMK A01 T00671054  RH  042%=      5-min Rain = 0
KDC1 021813Z 03016KT 07/M06 A3031 RMK A01 T00681055  RH  041%=      5-min Rain = 0
KDC1 021814Z 04015KT 07/M05 A303 RMK A01 T00681054  RH  041%=      5-min Rain = 0
KDC1 021815Z 04011KT 07/M06 A303 RMK A01 T00671055  RH  041%=      5-min Rain = 0
KDC1 021816Z 05011KT 07/M06 A303 RMK A01 T00661055  RH  042%=      5-min Rain = 0
KDC1 021817Z 04011KT 07/M06 A303 RMK A01 T00671055  RH  041%=      5-min Rain = 0
KDC1 021818Z 04012G18KT 07/M05 A303 RMK A01 T00701052  RH  041%=      5-min Rain = 0
KDC1 021819Z 05013G18KT 07/M05 A303 RMK A01 T00721054  RH  040%=      5-min Rain = 0
KDC1 021820Z 05013KT 07/M06 A303 RMK A01 T00691056  RH  041%=      5-min Rain = 0
KDC1 021821Z 03013G18KT 07/M06 A303 RMK A01 T00661055  RH  042%=      5-min Rain = 0
KDC1 021822Z 03016KT 07/M05 A303 RMK A01 T00681053  RH  042%=      5-min Rain = 0
KDC1 021823Z 02013KT 07/M05 A303 RMK A01 T00681053  RH  042%=      5-min Rain = 0
KDC1 021824Z 02015KT 07/M05 A303 RMK A01 T00691052  RH  042%=      5-min Rain = 0
KDC1 021825Z 03015KT 07/M05 A303 RMK A01 T00691054  RH  041%=      5-min Rain = 0
KDC1 021826Z 03016KT 07/M05 A303 RMK A01 T00681054  RH  041%=      5-min Rain = 0
KDC1 021827Z 03014KT 07/M06 A303 RMK A01 T00661055  RH  042%=      5-min Rain = 0
KDC1 021828Z 03012KT 07/M06 A303 RMK A01 T00661056  RH  041%=      5-min Rain = 0
KDC1 021829Z 03012G18KT 07/M06 A303 RMK A01 T00661057  RH  041%=      5-min Rain = 0
KDC1 021830Z 03016G21KT 07/M06 A303 RMK A01 T00661055  RH  041%=      5-min Rain = 0
KDC1 021831Z 04016G22KT 07/M06 A303 RMK A01 T00681055  RH  041%=      5-min Rain = 0
KDC1 021832Z 03015KT 07/M06 A303 RMK A01 T00691056  RH  041%=      5-min Rain = 0
KDC1 021833Z 04012KT 07/M06 A303 RMK A01 T00681057  RH  041%=      5-min Rain = 0
KDC1 021834Z 05015KT 07/M06 A303 RMK A01 T00691055  RH  041%=      5-min Rain = 0
KDC1 021835Z 05014KT 07/M06 A303 RMK A01 T00691056  RH  040%=      5-min Rain = 0
KDC1 021836Z 05015KT 07/M06 A303 RMK A01 T00691056  RH  041%=      5-min Rain = 0
KDC1 021837Z 05015KT 07/M05 A303 RMK A01 T00711054  RH  041%=      5-min Rain = 0
KDC1 021838Z 05012KT 07/M06 A303 RMK A01 T00721055  RH  040%=      5-min Rain = 0
KDC1 021839Z 05015KT 07/M06 A303 RMK A01 T00711056  RH  040%=      5-min Rain = 0
KDC1 021840Z 05014KT 07/M06 A303 RMK A01 T00701057  RH  040%=      5-min Rain = 0
KDC1 021841Z 04015KT 07/M06 A303 RMK A01 T00711057  RH  040%=      5-min Rain = 0
KDC1 021842Z 05013KT 07/M06 A303 RMK A01 T00711056  RH  040%=      5-min Rain = 0
KDC1 021843Z 05012KT 07/M06 A3029 RMK A01 T00691056  RH  040%=      5-min Rain = 0
KDC1 021844Z 06014KT 07/M05 A3029 RMK A01 T00721053  RH  041%=      5-min Rain = 0
KDC1 021845Z 06015KT 07/M05 A3029 RMK A01 T00731053  RH  040%=      5-min Rain = 0
KDC1 021846Z 05012G17KT 07/M05 A3029 RMK A01 T00711054  RH  040%=      5-min Rain = 0
KDC1 021847Z 04010KT 07/M05 A3029 RMK A01 T00721054  RH  040%=      5-min Rain = 0
KDC1 021848Z 05011KT 08/M05 A3029 RMK A01 T00751052  RH  040%=      5-min Rain = 0
KDC1 021849Z 04012KT 08/M05 A3029 RMK A01 T00771054  RH  039%=      5-min Rain = 0
KDC1 021850Z 02014KT 08/M06 A3029 RMK A01 T00751056  RH  039%=      5-min Rain = 0
KDC1 021851Z 01011KT 07/M06 A3029 RMK A01 T00731058  RH  039%=      5-min Rain = 0
KDC1 021852Z 02012KT 07/M06 A3029 RMK A01 T00731059  RH  039%=      5-min Rain = 0
KDC1 021853Z 03010KT 07/M06 A3029 RMK A01 T00721059  RH  039%=      5-min Rain = 0
KDC1 021854Z 04015KT 07/M06 A3029 RMK A01 T00721057  RH  039%=      5-min Rain = 0
KDC1 021855Z 04015KT 07/M06 A3029 RMK A01 T00701057  RH  040%=      5-min Rain = 0
KDC1 021856Z 05015KT 07/M06 A3029 RMK A01 T00671060  RH  040%=      5-min Rain = 0
KDC1 021857Z 04014KT 07/M06 A3029 RMK A01 T00671061  RH  039%=      5-min Rain = 0
KDC1 021858Z 03016KT 07/M06 A3029 RMK A01 T00671060  RH  040%=      5-min Rain = 0
KDC1 021859Z 03015KT 07/M06 A3029 RMK A01 T00671059  RH  040%=      5-min Rain = 0
KDC1 021900Z 04014KT 07/M06 A3029 RMK A01 T00661058  RH  041%=      5-min Rain = 0
KDC1 021901Z 04012KT 07/M06 A3029 RMK A01 T00681058  RH  040%=      5-min Rain = 0
KDC1 021902Z 03015KT 07/M06 A3029 RMK A01 T00721057  RH  039%=      5-min Rain = 0
KDC1 021903Z 04012G17KT 07/M06 A3029 RMK A01 T00731059  RH  038%=      5-min Rain = 0
KDC1 021904Z 04013KT 07/M06 A3029 RMK A01 T00721060  RH  039%=      5-min Rain = 0
KDC1 021905Z 04017KT 07/M06 A3029 RMK A01 T00711059  RH  039%=      5-min Rain = 0
KDC1 021906Z 04016KT 07/M06 A3029 RMK A01 T00691061  RH  039%=      5-min Rain = 0
KDC1 021907Z 04011G16KT 07/M06 A3029 RMK A01 T00671062  RH  039%=      5-min Rain = 0
KDC1 021908Z 03009G14KT 07/M06 A3028 RMK A01 T00661063  RH  039%=      5-min Rain = 0
KDC1 021909Z 03015G20KT 07/M06 A3028 RMK A01 T00681061  RH  039%=      5-min Rain = 0
KDC1 021910Z 04017KT 07/M06 A3029 RMK A01 T00701060  RH  039%=      5-min Rain = 0
KDC1 021911Z 04012G18KT 07/M06 A3029 RMK A01 T00711059  RH  039%=      5-min Rain = 0
KDC1 021912Z 04012KT 07/M06 A3028 RMK A01 T00741059  RH  038%=      5-min Rain = 0
KDC1 021913Z 05016KT 07/M06 A3029 RMK A01 T00741060  RH  038%=      5-min Rain = 0
KDC1 021914Z 05014KT 07/M06 A3029 RMK A01 T00721061  RH  038%=      5-min Rain = 0
KDC1 021915Z 06014KT 07/M06 A3029 RMK A01 T00701061  RH  039%=      5-min Rain = 0
KDC1 021916Z 06014KT 07/M06 A3029 RMK A01 T00701060  RH  039%=      5-min Rain = 0
KDC1 021917Z 05014KT 07/M06 A3029 RMK A01 T00721059  RH  039%=      5-min Rain = 0
KDC1 021918Z 04012KT 07/M06 A3029 RMK A01 T00741059  RH  038%=      5-min Rain = 0
KDC1 021919Z 04010KT 07/M06 A3028 RMK A01 T00731060  RH  038%=      5-min Rain = 0
KDC1 021920Z 04010G17KT 07/M06 A3028 RMK A01 T00741058  RH  039%=      5-min Rain = 0
KDC1 021921Z 05011KT 08/M06 A3029 RMK A01 T00761058  RH  038%=      5-min Rain = 0
KDC1 021922Z 03013G18KT 08/M06 A3029 RMK A01 T00761058  RH  038%=      5-min Rain = 0
KDC1 021923Z 01012KT 08/M06 A3029 RMK A01 T00761059  RH  038%=      5-min Rain = 0
KDC1 021924Z 01012KT 08/M06 A3028 RMK A01 T00761057  RH  038%=      5-min Rain = 0
KDC1 021925Z 03012KT 08/M06 A3028 RMK A01 T00771058  RH  038%=      5-min Rain = 0
KDC1 021926Z 03011KT 08/M06 A3028 RMK A01 T00771059  RH  038%=      5-min Rain = 0
KDC1 021927Z 01014KT 07/M06 A3028 RMK A01 T00741060  RH  038%=      5-min Rain = 0
KDC1 021928Z 03013KT 07/M06 A3028 RMK A01 T00711061  RH  039%=      5-min Rain = 0
KDC1 021929Z 03016KT 07/M06 A3028 RMK A01 T00691061  RH  039%=      5-min Rain = 0
KDC1 021930Z 03013KT 07/M06 A3028 RMK A01 T00671062  RH  039%=      5-min Rain = 0
KDC1 021931Z 03015KT 07/M06 A3029 RMK A01 T00681060  RH  040%=      5-min Rain = 0
KDC1 021932Z 02011KT 07/M06 A3028 RMK A01 T00691059  RH  039%=      5-min Rain = 0
KDC1 021933Z 01013KT 07/M06 A3028 RMK A01 T00691060  RH  039%=      5-min Rain = 0
KDC1 021934Z 02014KT 07/M06 A3028 RMK A01 T00671062  RH  039%=      5-min Rain = 0
KDC1 021935Z 03016KT 07/M06 A3028 RMK A01 T00651062  RH  040%=      5-min Rain = 0
KDC1 021936Z 03015KT 06/M06 A3028 RMK A01 T00641062  RH  040%=      5-min Rain = 0
KDC1 021937Z 04012KT 07/M06 A3028 RMK A01 T00681061  RH  040%=      5-min Rain = 0
KDC1 021938Z 03011KT 07/M06 A3028 RMK A01 T00711061  RH  038%=      5-min Rain = 0
KDC1 021939Z 02014G19KT 07/M06 A3028 RMK A01 T00741060  RH  038%=      5-min Rain = 0
KDC1 021940Z 03014KT 07/M06 A3028 RMK A01 T00721064  RH  037%=      5-min Rain = 0
KDC1 021941Z 03013KT 07/M07 A3028 RMK A01 T00691065  RH  038%=      5-min Rain = 0
KDC1 021942Z 03013KT 07/M06 A3028 RMK A01 T00681063  RH  039%=      5-min Rain = 0
KDC1 021943Z 03015KT 07/M06 A3028 RMK A01 T00701061  RH  039%=      5-min Rain = 0
KDC1 021944Z 03009KT 07/M06 A3028 RMK A01 T00701061  RH  039%=      5-min Rain = 0
KDC1 021945Z 04008KT 07/M06 A3028 RMK A01 T00691060  RH  039%=      5-min Rain = 0
KDC1 021946Z 05015KT 07/M06 A3028 RMK A01 T00711060  RH  039%=      5-min Rain = 0
KDC1 021947Z 04012KT 07/M06 A3028 RMK A01 T00711061  RH  038%=      5-min Rain = 0
KDC1 021948Z 04012G19KT 07/M06 A3028 RMK A01 T00701061  RH  039%=      5-min Rain = 0
KDC1 021949Z 05014KT 07/M06 A3028 RMK A01 T00681061  RH  039%=      5-min Rain = 0
KDC1 021950Z 05012KT 07/M06 A3028 RMK A01 T00681060  RH  040%=      5-min Rain = 0
KDC1 021951Z 06013KT 07/M06 A3028 RMK A01 T00701059  RH  039%=      5-min Rain = 0
KDC1 021952Z 05012KT 07/M06 A3028 RMK A01 T00711059  RH  039%=      5-min Rain = 0
KDC1 021953Z 03016KT 08/M06 A3028 RMK A01 T00761055  RH  039%=      5-min Rain = 0
KDC1 021954Z 03013KT 08/M06 A3028 RMK A01 T00761058  RH  038%=      5-min Rain = 0
KDC1 021955Z 02014G19KT 07/M06 A3028 RMK A01 T00741057  RH  039%=      5-min Rain = 0
KDC1 021956Z 02014KT 07/M06 A3028 RMK A01 T00721057  RH  039%=      5-min Rain = 0
KDC1 021957Z 03014KT 07/M06 A3028 RMK A01 T00721056  RH  040%=      5-min Rain = 0
KDC1 021958Z 02010KT 07/M06 A3028 RMK A01 T00711058  RH  039%=      5-min Rain = 0
KDC1 021959Z 02012KT 07/M06 A3028 RMK A01 T00691059  RH  040%=      5-min Rain = 0
KDC1 022000Z 03012KT 07/M06 A3028 RMK A01 T00711057  RH  039%=      5-min Rain = 0
KDC1 022001Z 02014KT 07/M06 A3028 RMK A01 T00741056  RH  039%=      5-min Rain = 0
KDC1 022002Z 01013KT 08/M06 A3028 RMK A01 T00751056  RH  039%=      5-min Rain = 0
KDC1 022003Z 03012KT 08/M06 A3028 RMK A01 T00751055  RH  039%=      5-min Rain = 0
KDC1 022004Z 04012KT 08/M06 A3028 RMK A01 T00751059  RH  038%=      5-min Rain = 0
KDC1 022005Z 04011KT 07/M06 A3028 RMK A01 T00691061  RH  039%=      5-min Rain = 0
KDC1 022006Z 03011KT 07/M06 A3028 RMK A01 T00671060  RH  040%=      5-min Rain = 0
KDC1 022007Z 04014KT 07/M06 A3028 RMK A01 T00661058  RH  041%=      5-min Rain = 0
KDC1 022008Z 04013KT 07/M06 A3028 RMK A01 T00661058  RH  041%=      5-min Rain = 0
KDC1 022009Z 05010G15KT 07/M06 A3028 RMK A01 T00661059  RH  041%=      5-min Rain = 0
KDC1 022010Z 04010KT 07/M06 A3028 RMK A01 T00671058  RH  041%=      5-min Rain = 0
KDC1 022011Z 02011KT 07/M05 A3028 RMK A01 T00711054  RH  040%=      5-min Rain = 0
KDC1 022012Z 02011KT 07/M06 A3028 RMK A01 T00731056  RH  039%=      5-min Rain = 0
KDC1 022013Z 04011KT 07/M06 A3028 RMK A01 T00721057  RH  039%=      5-min Rain = 0
KDC1 022014Z 04010KT 07/M06 A3028 RMK A01 T00711057  RH  040%=      5-min Rain = 0
KDC1 022015Z 04011KT 07/M06 A3028 RMK A01 T00711057  RH  039%=      5-min Rain = 0
KDC1 022016Z 04015KT 07/M06 A3028 RMK A01 T00711057  RH  040%=      5-min Rain = 0
KDC1 022017Z 05012KT 07/M06 A3028 RMK A01 T00691059  RH  040%=      5-min Rain = 0
KDC1 022018Z 04013KT 07/M06 A3028 RMK A01 T00671058  RH  040%=      5-min Rain = 0
KDC1 022019Z 02013KT 07/M06 A3028 RMK A01 T00691056  RH  041%=      5-min Rain = 0
KDC1 022020Z 02013KT 07/M06 A3027 RMK A01 T00701057  RH  040%=      5-min Rain = 0
KDC1 022021Z 02012KT 07/M06 A3027 RMK A01 T00701056  RH  040%=      5-min Rain = 0
KDC1 022022Z 03011G17KT 07/M06 A3027 RMK A01 T00711055  RH  040%=      5-min Rain = 0
KDC1 022023Z 02013KT 07/M05 A3027 RMK A01 T00731052  RH  041%=      5-min Rain = 0
KDC1 022024Z 01015KT 07/M05 A3027 RMK A01 T00731053  RH  040%=      5-min Rain = 0
KDC1 022025Z 02015KT 07/M06 A3027 RMK A01 T00701055  RH  041%=      5-min Rain = 0
KDC1 022026Z 03015KT 07/M06 A3027 RMK A01 T00691055  RH  041%=      5-min Rain = 0
KDC1 022027Z 03014KT 07/M06 A3027 RMK A01 T00691056  RH  041%=      5-min Rain = 0
KDC1 022028Z 03014KT 07/M06 A3027 RMK A01 T00681058  RH  040%=      5-min Rain = 0
KDC1 022029Z 03012KT 07/M06 A3027 RMK A01 T00671057  RH  041%=      5-min Rain = 0
KDC1 022030Z 04012KT 07/M06 A3027 RMK A01 T00691057  RH  040%=      5-min Rain = 0
KDC1 022031Z 03010KT 07/M06 A3027 RMK A01 T00691058  RH  040%=      5-min Rain = 0
KDC1 022032Z 03010KT 07/M06 A3027 RMK A01 T00691057  RH  040%=      5-min Rain = 0
KDC1 022033Z 02015KT 07/M06 A3027 RMK A01 T00701055  RH  040%=      5-min Rain = 0
KDC1 022034Z 03014KT 07/M06 A3027 RMK A01 T00711056  RH  040%=      5-min Rain = 0
KDC1 022035Z 03012KT 07/M06 A3027 RMK A01 T00711057  RH  040%=      5-min Rain = 0
KDC1 022036Z 01013KT 07/M06 A3027 RMK A01 T00701057  RH  040%=      5-min Rain = 0
KDC1 022037Z 01017G23KT 07/M06 A3027 RMK A01 T00711056  RH  040%=      5-min Rain = 0
KDC1 022038Z 03016KT 07/M06 A3027 RMK A01 T00711059  RH  039%=      5-min Rain = 0
KDC1 022039Z 03014KT 07/M06 A3027 RMK A01 T00691059  RH  039%=      5-min Rain = 0
KDC1 022040Z 02012KT 07/M06 A3027 RMK A01 T00681060  RH  040%=      5-min Rain = 0
KDC1 022041Z 02014KT 07/M06 A3027 RMK A01 T00671059  RH  040%=      5-min Rain = 0
KDC1 022042Z 03014KT 07/M06 A3027 RMK A01 T00681060  RH  040%=      5-min Rain = 0
KDC1 022043Z 03011KT 07/M06 A3027 RMK A01 T00681062  RH  039%=      5-min Rain = 0
KDC1 022044Z 04008KT 07/M06 A3027 RMK A01 T00671064  RH  039%=      5-min Rain = 0
KDC1 022045Z 03012KT 07/M06 A3027 RMK A01 T00681062  RH  039%=      5-min Rain = 0
KDC1 022046Z 02014G19KT 07/M06 A3027 RMK A01 T00691061  RH  039%=      5-min Rain = 0
KDC1 022047Z 02014KT 07/M06 A3027 RMK A01 T00681059  RH  040%=      5-min Rain = 0
KDC1 022048Z 02012KT 07/M06 A3027 RMK A01 T00681058  RH  040%=      5-min Rain = 0
KDC1 022049Z 03013KT 07/M06 A3027 RMK A01 T00681058  RH  040%=      5-min Rain = 0
KDC1 022050Z 03015KT 07/M06 A3027 RMK A01 T00691058  RH  040%=      5-min Rain = 0
KDC1 022051Z 03015KT 07/M06 A3027 RMK A01 T00681060  RH  040%=      5-min Rain = 0
KDC1 022052Z 03012KT 07/M06 A3027 RMK A01 T00681060  RH  040%=      5-min Rain = 0
KDC1 022053Z 04011KT 07/M06 A3027 RMK A01 T00671060  RH  040%=      5-min Rain = 0
KDC1 022054Z 02009KT 07/M06 A3027 RMK A01 T00671061  RH  040%=      5-min Rain = 0
KDC1 022055Z 01009KT 07/M06 A3027 RMK A01 T00661061  RH  040%=      5-min Rain = 0
KDC1 022056Z 03012KT 07/M06 A3027 RMK A01 T00671060  RH  040%=      5-min Rain = 0
KDC1 022057Z 05013KT 07/M06 A3027 RMK A01 T00671060  RH  040%=      5-min Rain = 0
KDC1 022058Z 04012KT 07/M06 A3027 RMK A01 T00681060  RH  040%=      5-min Rain = 0
KDC1 022059Z 04013KT 07/M06 A3027 RMK A01 T00671060  RH  040%=      5-min Rain = 0
KDC1 022100Z 02013KT 07/M06 A3027 RMK A01 T00671060  RH  040%=      5-min Rain = 0
KDC1 022101Z 02015KT 07/M06 A3027 RMK A01 T00661061  RH  040%=      5-min Rain = 0
KDC1 022102Z 02013KT 07/M06 A3027 RMK A01 T00651062  RH  040%=      5-min Rain = 0
KDC1 022103Z 03014KT 06/M06 A3027 RMK A01 T00641062  RH  040%=      5-min Rain = 0
KDC1 022104Z 02014KT 07/M06 A3027 RMK A01 T00661060  RH  040%=      5-min Rain = 0
KDC1 022105Z 03014KT 07/M06 A3027 RMK A01 T00691058  RH  040%=      5-min Rain = 0
KDC1 022106Z 04013KT 07/M06 A3027 RMK A01 T00721057  RH  039%=      5-min Rain = 0
KDC1 022107Z 04014G21KT 07/M06 A3027 RMK A01 T00731057  RH  039%=      5-min Rain = 0
KDC1 022108Z 04016G22KT 07/M06 A3027 RMK A01 T00731059  RH  039%=      5-min Rain = 0
KDC1 022109Z 05015KT 07/M06 A3027 RMK A01 T00711061  RH  038%=      5-min Rain = 0
KDC1 022110Z 05013KT 07/M06 A3027 RMK A01 T00691063  RH  039%=      5-min Rain = 0
KDC1 022111Z 05015KT 07/M06 A3027 RMK A01 T00681063  RH  039%=      5-min Rain = 0
KDC1 022112Z 03013KT 07/M06 A3027 RMK A01 T00671062  RH  039%=      5-min Rain = 0
KDC1 022113Z 02015KT 07/M06 A3027 RMK A01 T00661062  RH  040%=      5-min Rain = 0
KDC1 022114Z 03013KT 06/M06 A3027 RMK A01 T00641063  RH  040%=      5-min Rain = 0
KDC1 022115Z 03016KT 06/M06 A3027 RMK A01 T00641063  RH  040%=      5-min Rain = 0
KDC1 022116Z 03012KT 06/M06 A3027 RMK A01 T00641064  RH  039%=      5-min Rain = 0
KDC1 022117Z 02011KT 07/M06 A3027 RMK A01 T00661062  RH  039%=      5-min Rain = 0
KDC1 022118Z 03016KT 07/M06 A3027 RMK A01 T00671063  RH  039%=      5-min Rain = 0
KDC1 022119Z 04014KT 07/M06 A3027 RMK A01 T00661064  RH  039%=      5-min Rain = 0
KDC1 022120Z 05015KT 07/M07 A3027 RMK A01 T00671065  RH  039%=      5-min Rain = 0
KDC1 022121Z 05012KT 07/M07 A3027 RMK A01 T00671065  RH  038%=      5-min Rain = 0
KDC1 022122Z 05013KT 07/M07 A3027 RMK A01 T00671065  RH  038%=      5-min Rain = 0
KDC1 022123Z 03016KT 07/M06 A3027 RMK A01 T00691064  RH  038%=      5-min Rain = 0
KDC1 022124Z 03013G18KT 07/M07 A3027 RMK A01 T00681065  RH  038%=      5-min Rain = 0
KDC1 022125Z 04015KT 07/M07 A3027 RMK A01 T00651066  RH  038%=      5-min Rain = 0
KDC1 022126Z 04013KT 06/M07 A3027 RMK A01 T00631067  RH  039%=      5-min Rain = 0
KDC1 022127Z 04013KT 06/M07 A3027 RMK A01 T00621066  RH  039%=      5-min Rain = 0
KDC1 022128Z 04015KT 06/M07 A3027 RMK A01 T00621065  RH  040%=      5-min Rain = 0
KDC1 022129Z 04016KT 06/M06 A3028 RMK A01 T00621064  RH  040%=      5-min Rain = 0
KDC1 022130Z 04016KT 06/M06 A3028 RMK A01 T00611064  RH  040%=      5-min Rain = 0
KDC1 022131Z 05013KT 06/M07 A3028 RMK A01 T00601065  RH  040%=      5-min Rain = 0
KDC1 022132Z 05015KT 06/M07 A3028 RMK A01 T00611065  RH  040%=      5-min Rain = 0
KDC1 022133Z 04012KT 06/M07 A3028 RMK A01 T00601066  RH  040%=      5-min Rain = 0
KDC1 022134Z 04014KT 06/M07 A3027 RMK A01 T00601065  RH  040%=      5-min Rain = 0
KDC1 022135Z 05015KT 06/M07 A3028 RMK A01 T00591065  RH  041%=      5-min Rain = 0
KDC1 022136Z 04012KT 06/M07 A3028 RMK A01 T00611065  RH  040%=      5-min Rain = 0
KDC1 022137Z 04014KT 06/M06 A3028 RMK A01 T00611064  RH  040%=      5-min Rain = 0
KDC1 022138Z 04013KT 06/M07 A3028 RMK A01 T00621065  RH  040%=      5-min Rain = 0
KDC1 022139Z 05014KT 06/M07 A3028 RMK A01 T00601065  RH  040%=      5-min Rain = 0
KDC1 022140Z 05015KT 06/M06 A3028 RMK A01 T00601064  RH  041%=      5-min Rain = 0
KDC1 022141Z 04012KT 06/M06 A3028 RMK A01 T00601063  RH  041%=      5-min Rain = 0
KDC1 022142Z 05013KT 06/M06 A3028 RMK A01 T00611062  RH  041%=      5-min Rain = 0
KDC1 022143Z 05015KT 06/M06 A3028 RMK A01 T00611062  RH  041%=      5-min Rain = 0
KDC1 022144Z 04013KT 06/M06 A3028 RMK A01 T00611062  RH  041%=      5-min Rain = 0
KDC1 022145Z 04012KT 06/M06 A3028 RMK A01 T00601061  RH  041%=      5-min Rain = 0
KDC1 022146Z 05013KT 06/M06 A3028 RMK A01 T00611061  RH  041%=      5-min Rain = 0
KDC1 022147Z 05015KT 06/M06 A3028 RMK A01 T00611061  RH  041%=      5-min Rain = 0
KDC1 022148Z 04013KT 06/M06 A3028 RMK A01 T00601061  RH  041%=      5-min Rain = 0
KDC1 022149Z 03014KT 06/M06 A3028 RMK A01 T00601062  RH  041%=      5-min Rain = 0
KDC1 022150Z 03014KT 06/M06 A3028 RMK A01 T00601062  RH  041%=      5-min Rain = 0
KDC1 022151Z 04014KT 06/M06 A3028 RMK A01 T00601062  RH  041%=      5-min Rain = 0
KDC1 022152Z 03014KT 06/M06 A3028 RMK A01 T00601063  RH  041%=      5-min Rain = 0
KDC1 022153Z 04013KT 06/M06 A3028 RMK A01 T00601063  RH  041%=      5-min Rain = 0
KDC1 022154Z 04014KT 06/M06 A3028 RMK A01 T00591063  RH  041%=      5-min Rain = 0
KDC1 022155Z 04012KT 06/M06 A3028 RMK A01 T00591063  RH  041%=      5-min Rain = 0
KDC1 022156Z 03012KT 06/M06 A3028 RMK A01 T00581064  RH  041%=      5-min Rain = 0
KDC1 022157Z 03013KT 06/M07 A3028 RMK A01 T00581065  RH  041%=      5-min Rain = 0
KDC1 022158Z 03012KT 06/M07 A3028 RMK A01 T00591066  RH  040%=      5-min Rain = 0
KDC1 022159Z 04011KT 06/M07 A3028 RMK A01 T00591066  RH  040%=      5-min Rain = 0
KDC1 022200Z 04013KT 06/M07 A3028 RMK A01 T00591066  RH  040%=      5-min Rain = 0
KDC1 022201Z 04013KT 06/M07 A3028 RMK A01 T00601066  RH  040%=      5-min Rain = 0
KDC1 022202Z 04012KT 06/M07 A3028 RMK A01 T00591067  RH  040%=      5-min Rain = 0
KDC1 022203Z 05013KT 06/M07 A3028 RMK A01 T00601068  RH  039%=      5-min Rain = 0
KDC1 022204Z 04013KT 06/M07 A3028 RMK A01 T00601068  RH  039%=      5-min Rain = 0
KDC1 022205Z 05013KT 06/M07 A3028 RMK A01 T00601068  RH  039%=      5-min Rain = 0
KDC1 022206Z 05015KT 06/M07 A3028 RMK A01 T00601068  RH  039%=      5-min Rain = 0
KDC1 022207Z 04013KT 06/M07 A3028 RMK A01 T00601070  RH  039%=      5-min Rain = 0
KDC1 022208Z 05014KT 06/M07 A3028 RMK A01 T00601070  RH  039%=      5-min Rain = 0
KDC1 022209Z 05011KT 06/M07 A3028 RMK A01 T00601071  RH  038%=      5-min Rain = 0
KDC1 022210Z 04012KT 06/M07 A3028 RMK A01 T00601071  RH  038%=      5-min Rain = 0
KDC1 022211Z 03009KT 06/M07 A3028 RMK A01 T00611071  RH  038%=      5-min Rain = 0
KDC1 022212Z 02010KT 06/M07 A3028 RMK A01 T00621071  RH  038%=      5-min Rain = 0
KDC1 022213Z 03011KT 06/M07 A3028 RMK A01 T00611073  RH  038%=      5-min Rain = 0
KDC1 022214Z 04015KT 06/M07 A3029 RMK A01 T00611072  RH  038%=      5-min Rain = 0
KDC1 022215Z 05015KT 06/M07 A3029 RMK A01 T00611073  RH  038%=      5-min Rain = 0
KDC1 022216Z 05014KT 06/M07 A3029 RMK A01 T00611074  RH  037%=      5-min Rain = 0
KDC1 022217Z 05013KT 06/M08 A3029 RMK A01 T00601075  RH  037%=      5-min Rain = 0
KDC1 022218Z 05014KT 06/M07 A3029 RMK A01 T00611074  RH  037%=      5-min Rain = 0
KDC1 022219Z 05011KT 06/M07 A3029 RMK A01 T00621073  RH  037%=      5-min Rain = 0
KDC1 022220Z 04011KT 06/M07 A3029 RMK A01 T00631072  RH  037%=      5-min Rain = 0
KDC1 022221Z 04013KT 06/M07 A3029 RMK A01 T00641072  RH  037%=      5-min Rain = 0
KDC1 022222Z 04011KT 06/M07 A3029 RMK A01 T00631072  RH  037%=      5-min Rain = 0
KDC1 022223Z 06014KT 06/M07 A3029 RMK A01 T00631072  RH  037%=      5-min Rain = 0
KDC1 022224Z 05013KT 06/M07 A3029 RMK A01 T00631073  RH  037%=      5-min Rain = 0
KDC1 022225Z 05013KT 06/M07 A3029 RMK A01 T00621073  RH  037%=      5-min Rain = 0
KDC1 022226Z 05015KT 06/M07 A3029 RMK A01 T00621073  RH  037%=      5-min Rain = 0
KDC1 022227Z 05011KT 06/M07 A3029 RMK A01 T00611074  RH  037%=      5-min Rain = 0
KDC1 022228Z 06014KT 06/M07 A3029 RMK A01 T00611073  RH  038%=      5-min Rain = 0
KDC1 022229Z 05012KT 06/M07 A3029 RMK A01 T00611072  RH  038%=      5-min Rain = 0
KDC1 022230Z 05013KT 06/M07 A3029 RMK A01 T00611072  RH  038%=      5-min Rain = 0
KDC1 022231Z 04014G19KT 06/M07 A3029 RMK A01 T00621073  RH  037%=      5-min Rain = 0
KDC1 022232Z 05013KT 06/M07 A3029 RMK A01 T00611074  RH  037%=      5-min Rain = 0
KDC1 022233Z 05012KT 06/M07 A3029 RMK A01 T00591074  RH  038%=      5-min Rain = 0
KDC1 022234Z 05013KT 06/M07 A3029 RMK A01 T00591074  RH  038%=      5-min Rain = 0
KDC1 022235Z 04010KT 06/M07 A3029 RMK A01 T00581074  RH  038%=      5-min Rain = 0
KDC1 022236Z 04012KT 06/M07 A3029 RMK A01 T00581074  RH  038%=      5-min Rain = 0
KDC1 022237Z 04014KT 06/M07 A3029 RMK A01 T00581074  RH  038%=      5-min Rain = 0
KDC1 022238Z 05012KT 06/M08 A3029 RMK A01 T00571075  RH  038%=      5-min Rain = 0
KDC1 022239Z 03010KT 06/M07 A3029 RMK A01 T00571074  RH  038%=      5-min Rain = 0
KDC1 022240Z 03013G19KT 06/M07 A3029 RMK A01 T00581074  RH  038%=      5-min Rain = 0
KDC1 022241Z 03011KT 06/M08 A3029 RMK A01 T00581075  RH  038%=      5-min Rain = 0
KDC1 022242Z 03014KT 06/M08 A3029 RMK A01 T00571076  RH  038%=      5-min Rain = 0
KDC1 022243Z 03012KT 06/M08 A303 RMK A01 T00561077  RH  038%=      5-min Rain = 0
KDC1 022244Z 04013KT 06/M08 A303 RMK A01 T00551077  RH  038%=      5-min Rain = 0
KDC1 022245Z 04011KT 06/M08 A303 RMK A01 T00561077  RH  038%=      5-min Rain = 0
KDC1 022246Z 03012G17KT 06/M08 A303 RMK A01 T00571077  RH  038%=      5-min Rain = 0
KDC1 022247Z 03013KT 06/M08 A303 RMK A01 T00581077  RH  037%=      5-min Rain = 0
KDC1 022248Z 03014KT 06/M08 A303 RMK A01 T00571078  RH  037%=      5-min Rain = 0
KDC1 022249Z 03012KT 06/M08 A303 RMK A01 T00561078  RH  037%=      5-min Rain = 0
KDC1 022250Z 03013KT 06/M08 A303 RMK A01 T00561077  RH  038%=      5-min Rain = 0
KDC1 022251Z 03014KT 06/M08 A303 RMK A01 T00561077  RH  038%=      5-min Rain = 0
KDC1 022252Z 03014KT 06/M08 A303 RMK A01 T00561077  RH  038%=      5-min Rain = 0
KDC1 022253Z 03014KT 06/M08 A303 RMK A01 T00561077  RH  038%=      5-min Rain = 0
KDC1 022254Z 03014KT 06/M08 A303 RMK A01 T00551077  RH  038%=      5-min Rain = 0
KDC1 022255Z 04013KT 05/M08 A303 RMK A01 T00541076  RH  038%=      5-min Rain = 0
KDC1 022256Z 04011KT 06/M08 A303 RMK A01 T00551076  RH  038%=      5-min Rain = 0
KDC1 022257Z 04011KT 06/M08 A303 RMK A01 T00551076  RH  038%=      5-min Rain = 0
KDC1 022258Z 03012KT 06/M08 A303 RMK A01 T00551076  RH  038%=      5-min Rain = 0
KDC1 022259Z 03009KT 05/M08 A303 RMK A01 T00541076  RH  038%=      5-min Rain = 0
KDC1 022300Z 04013KT 05/M08 A303 RMK A01 T00541076  RH  039%=      5-min Rain = 0
KDC1 022301Z 04014KT 05/M08 A303 RMK A01 T00541076  RH  039%=      5-min Rain = 0
KDC1 022302Z 04015KT 05/M08 A303 RMK A01 T00541075  RH  039%=      5-min Rain = 0
KDC1 022303Z 04012KT 05/M08 A303 RMK A01 T00541075  RH  039%=      5-min Rain = 0
KDC1 022304Z 03012KT 05/M08 A303 RMK A01 T00541075  RH  039%=      5-min Rain = 0
KDC1 022305Z 03011KT 05/M08 A303 RMK A01 T00531075  RH  039%=      5-min Rain = 0
KDC1 022306Z 03010KT 05/M08 A303 RMK A01 T00531075  RH  039%=      5-min Rain = 0
KDC1 022307Z 03015KT 05/M08 A3031 RMK A01 T00531076  RH  039%=      5-min Rain = 0
KDC1 022308Z 04014KT 05/M08 A303 RMK A01 T00531078  RH  038%=      5-min Rain = 0
KDC1 022309Z 04014KT 05/M08 A303 RMK A01 T00531078  RH  038%=      5-min Rain = 0
KDC1 022310Z 05011G16KT 05/M08 A303 RMK A01 T00521079  RH  038%=      5-min Rain = 0
KDC1 022311Z 05013KT 05/M08 A303 RMK A01 T00521078  RH  039%=      5-min Rain = 0
KDC1 022312Z 04012KT 05/M08 A303 RMK A01 T00511078  RH  039%=      5-min Rain = 0
KDC1 022313Z 04012KT 05/M08 A303 RMK A01 T00511078  RH  039%=      5-min Rain = 0
KDC1 022314Z 03015KT 05/M08 A303 RMK A01 T00511079  RH  039%=      5-min Rain = 0
KDC1 022315Z 03013KT 05/M08 A303 RMK A01 T00501079  RH  039%=      5-min Rain = 0
KDC1 022316Z 04013KT 05/M08 A303 RMK A01 T00501080  RH  039%=      5-min Rain = 0
KDC1 022317Z 04012G17KT 05/M08 A303 RMK A01 T00501081  RH  038%=      5-min Rain = 0
KDC1 022318Z 03015KT 05/M08 A303 RMK A01 T00501081  RH  038%=      5-min Rain = 0
KDC1 022319Z 03013KT 05/M08 A303 RMK A01 T00501081  RH  038%=      5-min Rain = 0
KDC1 022320Z 03013KT 05/M08 A303 RMK A01 T00491081  RH  038%=      5-min Rain = 0
KDC1 022321Z 04011KT 05/M08 A303 RMK A01 T00491081  RH  039%=      5-min Rain = 0
KDC1 022322Z 03014KT 05/M08 A303 RMK A01 T00491081  RH  038%=      5-min Rain = 0
KDC1 022323Z 03013KT 05/M08 A303 RMK A01 T00491081  RH  038%=      5-min Rain = 0
KDC1 022324Z 03012KT 05/M08 A303 RMK A01 T00481081  RH  039%=      5-min Rain = 0
KDC1 022325Z 03013KT 05/M08 A303 RMK A01 T00481081  RH  039%=      5-min Rain = 0
KDC1 022326Z 03011KT 05/M08 A303 RMK A01 T00481081  RH  039%=      5-min Rain = 0
KDC1 022327Z 03013KT 05/M08 A3031 RMK A01 T00481080  RH  039%=      5-min Rain = 0
KDC1 022328Z 03012KT 05/M08 A3031 RMK A01 T00481080  RH  039%=      5-min Rain = 0
KDC1 022329Z 03011KT 05/M08 A3031 RMK A01 T00471080  RH  039%=      5-min Rain = 0
KDC1 022330Z 03010KT 05/M08 A3031 RMK A01 T00471081  RH  039%=      5-min Rain = 0
KDC1 022331Z 03011KT 05/M08 A3031 RMK A01 T00471081  RH  039%=      5-min Rain = 0
KDC1 022332Z 03014KT 05/M08 A3031 RMK A01 T00471081  RH  039%=      5-min Rain = 0
KDC1 022333Z 03014KT 05/M08 A3031 RMK A01 T00471081  RH  039%=      5-min Rain = 0
KDC1 022334Z 03013KT 05/M08 A3031 RMK A01 T00471081  RH  039%=      5-min Rain = 0
KDC1 022335Z 03013KT 05/M08 A3031 RMK A01 T00471081  RH  039%=      5-min Rain = 0
KDC1 022336Z 02011KT 05/M08 A3031 RMK A01 T00461081  RH  039%=      5-min Rain = 0
KDC1 022337Z 03012KT 05/M08 A3031 RMK A01 T00461080  RH  039%=      5-min Rain = 0
KDC1 022338Z 03011KT 05/M08 A3031 RMK A01 T00451080  RH  040%=      5-min Rain = 0
KDC1 022339Z 03012KT 05/M08 A3031 RMK A01 T00451081  RH  040%=      5-min Rain = 0
KDC1 022340Z 04011KT 05/M08 A3031 RMK A01 T00451081  RH  039%=      5-min Rain = 0
KDC1 022341Z 03012KT 05/M08 A3031 RMK A01 T00451081  RH  040%=      5-min Rain = 0
KDC1 022342Z 04012KT 05/M08 A3031 RMK A01 T00451081  RH  040%=      5-min Rain = 0
KDC1 022343Z 04012KT 05/M08 A3031 RMK A01 T00451081  RH  040%=      5-min Rain = 0
KDC1 022344Z 04010KT 04/M08 A3031 RMK A01 T00441081  RH  040%=      5-min Rain = 0
KDC1 022345Z 04012KT 04/M08 A3031 RMK A01 T00441081  RH  040%=      5-min Rain = 0
KDC1 022346Z 04011KT 04/M08 A3031 RMK A01 T00441081  RH  040%=      5-min Rain = 0
KDC1 022347Z 03009G14KT 04/M08 A3031 RMK A01 T00431081  RH  040%=      5-min Rain = 0
KDC1 022348Z 04010KT 04/M08 A3031 RMK A01 T00421081  RH  040%=      5-min Rain = 0
KDC1 022349Z 04010KT 04/M08 A3031 RMK A01 T00421081  RH  040%=      5-min Rain = 0
KDC1 022350Z 04012KT 04/M08 A3031 RMK A01 T00421081  RH  040%=      5-min Rain = 0
KDC1 022351Z 04009KT 04/M08 A3031 RMK A01 T00421081  RH  041%=      5-min Rain = 0
KDC1 022352Z 04011KT 04/M08 A3031 RMK A01 T00411081  RH  041%=      5-min Rain = 0
KDC1 022353Z 04011KT 04/M08 A3031 RMK A01 T00401081  RH  041%=      5-min Rain = 0
KDC1 022354Z 04010KT 04/M08 A3031 RMK A01 T00401081  RH  041%=      5-min Rain = 0
KDC1 022355Z 04009KT 04/M08 A3031 RMK A01 T00401081  RH  041%=      5-min Rain = 0
KDC1 022356Z 04009KT 04/M08 A3031 RMK A01 T00401081  RH  041%=      5-min Rain = 0
KDC1 022357Z 04011KT 04/M08 A3031 RMK A01 T00391081  RH  041%=      5-min Rain = 0
KDC1 022358Z 04011KT 04/M08 A3031 RMK A01 T00391082  RH  041%=      5-min Rain = 0
KDC1 022359Z 04011KT 04/M08 A3031 RMK A01 T00391082  RH  041%=      5-min Rain = 0
KDC1 030000Z 04011KT 04/M08 A3031 RMK A01 T00391082  RH  041%=      5-min Rain = 0
KDC1 030001Z 04010KT 04/M08 A3031 RMK A01 T00381082  RH  041%=      5-min Rain = 0
KDC1 030002Z 04011KT 04/M08 A3031 RMK A01 T00381082  RH  041%=      5-min Rain = 0
KDC1 030003Z 04011KT 04/M08 A3031 RMK A01 T00371082  RH  041%=      5-min Rain = 0
KDC1 030004Z 04010KT 04/M08 A3031 RMK A01 T00371082  RH  041%=      5-min Rain = 0
KDC1 030005Z 04010KT 04/M08 A3031 RMK A01 T00361082  RH  042%=      5-min Rain = 0
KDC1 030006Z 04011KT 04/M08 A3031 RMK A01 T00361082  RH  042%=      5-min Rain = 0
KDC1 030007Z 04010KT 04/M08 A3031 RMK A01 T00361082  RH  042%=      5-min Rain = 0
KDC1 030008Z 04010KT 04/M08 A3031 RMK A01 T00361082  RH  042%=      5-min Rain = 0
KDC1 030009Z 04009KT 04/M08 A3031 RMK A01 T00351082  RH  042%=      5-min Rain = 0
KDC1 030010Z 04009KT 04/M08 A3032 RMK A01 T00351082  RH  042%=      5-min Rain = 0
KDC1 030011Z 03009KT 03/M08 A3032 RMK A01 T00341082  RH  042%=      5-min Rain = 0
KDC1 030012Z 04007KT 03/M08 A3032 RMK A01 T00341082  RH  042%=      5-min Rain = 0
KDC1 030013Z 04009KT 03/M08 A3032 RMK A01 T00341082  RH  042%=      5-min Rain = 0
KDC1 030014Z 04008KT 03/M08 A3032 RMK A01 T00331083  RH  042%=      5-min Rain = 0
KDC1 030015Z 04007KT 03/M08 A3032 RMK A01 T00331083  RH  042%=      5-min Rain = 0
KDC1 030016Z 04007KT 03/M08 A3032 RMK A01 T00331083  RH  043%=      5-min Rain = 0
KDC1 030017Z 04008KT 03/M08 A3032 RMK A01 T00321083  RH  043%=      5-min Rain = 0
KDC1 030018Z 03008KT 03/M08 A3032 RMK A01 T00321083  RH  043%=      5-min Rain = 0
KDC1 030019Z 04009KT 03/M08 A3032 RMK A01 T00321083  RH  043%=      5-min Rain = 0
KDC1 030020Z 03008KT 03/M08 A3032 RMK A01 T00311083  RH  043%=      5-min Rain = 0
KDC1 030021Z 04008KT 03/M08 A3032 RMK A01 T00311084  RH  043%=      5-min Rain = 0
KDC1 030022Z 04007KT 03/M08 A3032 RMK A01 T00311084  RH  043%=      5-min Rain = 0
KDC1 030023Z 04008KT 03/M08 A3032 RMK A01 T00311084  RH  043%=      5-min Rain = 0
KDC1 030024Z 04008KT 03/M08 A3032 RMK A01 T00301084  RH  043%=      5-min Rain = 0
KDC1 030025Z 03008KT 03/M08 A3032 RMK A01 T00301084  RH  043%=      5-min Rain = 0
KDC1 030026Z 03008KT 03/M09 A3032 RMK A01 T00301085  RH  043%=      5-min Rain = 0
KDC1 030027Z 04008KT 03/M08 A3032 RMK A01 T00301084  RH  043%=      5-min Rain = 0
KDC1 030028Z 04007KT 03/M08 A3032 RMK A01 T00301084  RH  043%=      5-min Rain = 0
KDC1 030029Z 04009KT 03/M09 A3032 RMK A01 T00301085  RH  043%=      5-min Rain = 0
KDC1 030030Z 04008KT 03/M09 A3032 RMK A01 T00301085  RH  043%=      5-min Rain = 0
KDC1 030031Z 04007KT 03/M09 A3032 RMK A01 T00291085  RH  043%=      5-min Rain = 0
KDC1 030032Z 03008KT 03/M09 A3032 RMK A01 T00291085  RH  043%=      5-min Rain = 0
KDC1 030033Z 03008KT 03/M09 A3032 RMK A01 T00291085  RH  043%=      5-min Rain = 0
KDC1 030034Z 03008KT 03/M09 A3032 RMK A01 T00281085  RH  043%=      5-min Rain = 0
KDC1 030035Z 04007KT 03/M09 A3032 RMK A01 T00271086  RH  043%=      5-min Rain = 0
KDC1 030036Z 04007KT 03/M09 A3032 RMK A01 T00271086  RH  043%=      5-min Rain = 0
KDC1 030037Z 04007KT 03/M09 A3032 RMK A01 T00271085  RH  043%=      5-min Rain = 0
KDC1 030038Z 04006KT 03/M09 A3032 RMK A01 T00261085  RH  044%=      5-min Rain = 0
KDC1 030039Z 04006KT 03/M09 A3032 RMK A01 T00261086  RH  044%=      5-min Rain = 0
KDC1 030040Z 04006KT 03/M09 A3032 RMK A01 T00251086  RH  044%=      5-min Rain = 0
KDC1 030041Z 04006KT 02/M09 A3032 RMK A01 T00241086  RH  044%=      5-min Rain = 0
KDC1 030042Z 04006KT 02/M09 A3032 RMK A01 T00241086  RH  044%=      5-min Rain = 0
KDC1 030043Z 04007KT 02/M09 A3032 RMK A01 T00231086  RH  044%=      5-min Rain = 0
KDC1 030044Z 04007KT 02/M09 A3032 RMK A01 T00231086  RH  044%=      5-min Rain = 0
KDC1 030045Z 05006KT 02/M09 A3032 RMK A01 T00231086  RH  044%=      5-min Rain = 0
KDC1 030046Z 04006KT 02/M09 A3032 RMK A01 T00221087  RH  045%=      5-min Rain = 0
KDC1 030047Z 04006KT 02/M09 A3032 RMK A01 T00211087  RH  045%=      5-min Rain = 0
KDC1 030048Z 04006KT 02/M09 A3032 RMK A01 T00201087  RH  045%=      5-min Rain = 0
KDC1 030049Z 04006KT 02/M09 A3032 RMK A01 T00191087  RH  045%=      5-min Rain = 0
KDC1 030050Z 04006KT 02/M09 A3032 RMK A01 T00191087  RH  045%=      5-min Rain = 0
KDC1 030051Z 04006KT 02/M09 A3033 RMK A01 T00181087  RH  045%=      5-min Rain = 0
KDC1 030052Z 04006KT 02/M09 A3033 RMK A01 T00181087  RH  046%=      5-min Rain = 0
KDC1 030053Z 04007KT 02/M09 A3033 RMK A01 T00171088  RH  046%=      5-min Rain = 0
KDC1 030054Z 04007KT 02/M09 A3033 RMK A01 T00171088  RH  046%=      5-min Rain = 0
KDC1 030055Z 04007KT 02/M09 A3033 RMK A01 T00171088  RH  046%=      5-min Rain = 0
KDC1 030056Z 04006KT 02/M09 A3033 RMK A01 T00171088  RH  046%=      5-min Rain = 0
KDC1 030057Z 04007KT 02/M09 A3033 RMK A01 T00181088  RH  045%=      5-min Rain = 0
KDC1 030058Z 04007KT 02/M09 A3033 RMK A01 T00181088  RH  045%=      5-min Rain = 0
KDC1 030059Z 04007KT 02/M09 A3033 RMK A01 T00181089  RH  045%=      5-min Rain = 0
KDC1 030100Z 04007KT 02/M09 A3033 RMK A01 T00181088  RH  045%=      5-min Rain = 0
KDC1 030101Z 04006KT 02/M09 A3033 RMK A01 T00191088  RH  045%=      5-min Rain = 0
KDC1 030102Z 04006KT 02/M09 A3033 RMK A01 T00181089  RH  045%=      5-min Rain = 0
KDC1 030103Z 04006KT 02/M09 A3033 RMK A01 T00181089  RH  045%=      5-min Rain = 0
KDC1 030104Z 04006KT 02/M09 A3033 RMK A01 T00171090  RH  045%=      5-min Rain = 0
KDC1 030105Z 04006KT 02/M09 A3033 RMK A01 T00161089  RH  045%=      5-min Rain = 0
KDC1 030106Z 04005KT 02/M09 A3033 RMK A01 T00161089  RH  045%=      5-min Rain = 0
KDC1 030107Z 04006KT 02/M09 A3033 RMK A01 T00151090  RH  045%=      5-min Rain = 0
KDC1 030108Z 03005KT 02/M09 A3033 RMK A01 T00151090  RH  046%=      5-min Rain = 0
KDC1 030109Z 03005KT 01/M09 A3033 RMK A01 T00141090  RH  046%=      5-min Rain = 0
KDC1 030110Z 03006KT 01/M09 A3033 RMK A01 T00141090  RH  046%=      5-min Rain = 0
KDC1 030111Z 03006KT 01/M09 A3033 RMK A01 T00131091  RH  046%=      5-min Rain = 0
KDC1 030112Z 03006KT 01/M09 A3033 RMK A01 T00131090  RH  046%=      5-min Rain = 0
KDC1 030113Z 03005KT 01/M09 A3033 RMK A01 T00131090  RH  046%=      5-min Rain = 0
KDC1 030114Z 03005KT 01/M09 A3033 RMK A01 T00121091  RH  046%=      5-min Rain = 0
KDC1 030115Z 03005KT 01/M09 A3033 RMK A01 T00111091  RH  046%=      5-min Rain = 0
KDC1 030116Z 03005KT 01/M09 A3034 RMK A01 T00101092  RH  047%=      5-min Rain = 0
KDC1 030117Z 03005KT 01/M09 A3033 RMK A01 T00101092  RH  047%=      5-min Rain = 0
KDC1 030118Z 03005KT 01/M09 A3033 RMK A01 T00091092  RH  047%=      5-min Rain = 0
KDC1 030119Z 02005KT 01/M09 A3033 RMK A01 T00081092  RH  047%=      5-min Rain = 0
KDC1 030120Z 02004KT 01/M09 A3034 RMK A01 T00081092  RH  047%=      5-min Rain = 0
KDC1 030121Z 02004KT 01/M09 A3034 RMK A01 T00071092  RH  048%=      5-min Rain = 0
KDC1 030122Z 02005KT 01/M09 A3034 RMK A01 T00061092  RH  048%=      5-min Rain = 0
KDC1 030123Z 02005KT 00/M09 A3034 RMK A01 T00041092  RH  049%=      5-min Rain = 0
KDC1 030124Z 02005KT 00/M09 A3034 RMK A01 T00031091  RH  049%=      5-min Rain = 0
KDC1 030125Z 02005KT 00/M09 A3034 RMK A01 T00021091  RH  050%=      5-min Rain = 0
KDC1 030126Z 01005KT 00/M09 A3034 RMK A01 T00021090  RH  050%=      5-min Rain = 0
KDC1 030127Z 00004KT 00/M09 A3034 RMK A01 T00011088  RH  051%=      5-min Rain = 0
KDC1 030128Z 00005KT 00/M09 A3034 RMK A01 T00011087  RH  052%=      5-min Rain = 0
KDC1 030129Z 01005KT 00/09 A3034 RMK A01 T00-00-85  RH  053%=      5-min Rain = 0
KDC1 030130Z 01005KT M00/M08 A3034 RMK A01 T10011084  RH  053%=      5-min Rain = 0
KDC1 030131Z 01006KT M00/M09 A3034 RMK A01 T10011085  RH  053%=      5-min Rain = 0
KDC1 030132Z 01006KT M00/M09 A3034 RMK A01 T10021086  RH  053%=      5-min Rain = 0
KDC1 030133Z 01006KT M00/M09 A3034 RMK A01 T10021086  RH  053%=      5-min Rain = 0
KDC1 030134Z 02006KT M00/M09 A3034 RMK A01 T10021086  RH  053%=      5-min Rain = 0
KDC1 030135Z 01006KT M00/M09 A3034 RMK A01 T10021085  RH  054%=      5-min Rain = 0
KDC1 030136Z 01006KT M00/M09 A3034 RMK A01 T10031086  RH  054%=      5-min Rain = 0
KDC1 030137Z 01006KT M00/M09 A3034 RMK A01 T10031086  RH  053%=      5-min Rain = 0
KDC1 030138Z 01006KT M00/M09 A3034 RMK A01 T10031087  RH  053%=      5-min Rain = 0
KDC1 030139Z 01006KT M00/M09 A3034 RMK A01 T10031087  RH  053%=      5-min Rain = 0
KDC1 030140Z 00006KT M00/M09 A3034 RMK A01 T10031088  RH  053%=      5-min Rain = 0
KDC1 030141Z 00006KT M00/M09 A3034 RMK A01 T10031089  RH  052%=      5-min Rain = 0
KDC1 030142Z 36006KT M00/M09 A3034 RMK A01 T10021089  RH  052%=      5-min Rain = 0
KDC1 030143Z 00006KT M00/M09 A3034 RMK A01 T10021089  RH  052%=      5-min Rain = 0
KDC1 030144Z 00006KT M00/M09 A3034 RMK A01 T10011090  RH  051%=      5-min Rain = 0
KDC1 030145Z 36006KT M00/M09 A3034 RMK A01 T10011091  RH  051%=      5-min Rain = 0
KDC1 030146Z 00006KT M00/M09 A3034 RMK A01 T10011092  RH  051%=      5-min Rain = 0
KDC1 030147Z 00006KT M00/M09 A3034 RMK A01 T10011092  RH  050%=      5-min Rain = 0
KDC1 030148Z 01007KT M00/M09 A3034 RMK A01 T10011092  RH  050%=      5-min Rain = 0
KDC1 030149Z 00006KT 00/M09 A3035 RMK A01 T00011091  RH  050%=      5-min Rain = 0
KDC1 030150Z 00006KT 00/M09 A3035 RMK A01 T00021091  RH  050%=      5-min Rain = 0
KDC1 030151Z 00006KT 00/M09 A3035 RMK A01 T00021091  RH  049%=      5-min Rain = 0
KDC1 030152Z 00006KT 00/M09 A3035 RMK A01 T00021092  RH  049%=      5-min Rain = 0
KDC1 030153Z 36006KT 00/M09 A3035 RMK A01 T00021092  RH  049%=      5-min Rain = 0
KDC1 030154Z 35006KT 00/M09 A3035 RMK A01 T00021092  RH  049%=      5-min Rain = 0
KDC1 030155Z 36006KT 00/09 A3035 RMK A01 T00000-94  RH  049%=      5-min Rain = 0
KDC1 030156Z 36006KT M00/M09 A3035 RMK A01 T10011094  RH  049%=      5-min Rain = 0
KDC1 030157Z 00006KT M00/M10 A3035 RMK A01 T10021095  RH  050%=      5-min Rain = 0
KDC1 030158Z 00006KT M00/M09 A3035 RMK A01 T10021094  RH  050%=      5-min Rain = 0
KDC1 030159Z 00005KT M00/M09 A3035 RMK A01 T10031094  RH  050%=      5-min Rain = 0
KDC1 030200Z 35006KT M00/M09 A3035 RMK A01 T10041094  RH  051%=      5-min Rain = 0
KDC1 030201Z 35005KT M01/M09 A3035 RMK A01 T10061093  RH  052%=      5-min Rain = 0
KDC1 030202Z 35005KT M01/M09 A3035 RMK A01 T10071093  RH  052%=      5-min Rain = 0
KDC1 030203Z 36005KT M01/M09 A3035 RMK A01 T10081094  RH  052%=      5-min Rain = 0
KDC1 030204Z 35006KT M01/M09 A3035 RMK A01 T10081094  RH  052%=      5-min Rain = 0
KDC1 030205Z 35006KT M01/M09 A3035 RMK A01 T10091094  RH  052%=      5-min Rain = 0
KDC1 030206Z 35006KT M01/M09 A3035 RMK A01 T10091094  RH  053%=      5-min Rain = 0
KDC1 030207Z 35006KT M01/M09 A3035 RMK A01 T10101094  RH  053%=      5-min Rain = 0
KDC1 030208Z 35006KT M01/M10 A3035 RMK A01 T10111095  RH  053%=      5-min Rain = 0
KDC1 030209Z 36006KT M01/M10 A3035 RMK A01 T10111095  RH  053%=      5-min Rain = 0
KDC1 030210Z 36005KT M01/M10 A3035 RMK A01 T10111096  RH  052%=      5-min Rain = 0
KDC1 030211Z 35005KT M01/M10 A3035 RMK A01 T10111098  RH  052%=      5-min Rain = 0
KDC1 030212Z 35005KT M01/M10 A3035 RMK A01 T10101098  RH  052%=      5-min Rain = 0
KDC1 030213Z 35005KT M01/M10 A3035 RMK A01 T10111097  RH  052%=      5-min Rain = 0
KDC1 030214Z 35005KT M01/M09 A3035 RMK A01 T10131094  RH  054%=      5-min Rain = 0
KDC1 030215Z 35005KT M01/M09 A3035 RMK A01 T10141093  RH  055%=      5-min Rain = 0
KDC1 030216Z 35005KT M02/M09 A3035 RMK A01 T10151092  RH  056%=      5-min Rain = 0
KDC1 030217Z 35005KT M02/M09 A3035 RMK A01 T10151092  RH  056%=      5-min Rain = 0
KDC1 030218Z 35005KT M02/M09 A3035 RMK A01 T10161093  RH  056%=      5-min Rain = 0
KDC1 030219Z 35005KT M02/M09 A3035 RMK A01 T10171090  RH  057%=      5-min Rain = 0
KDC1 030220Z 35005KT M02/M09 A3035 RMK A01 T10181087  RH  059%=      5-min Rain = 0
KDC1 030221Z 36005KT M02/M09 A3035 RMK A01 T10191087  RH  060%=      5-min Rain = 0
KDC1 030222Z 36005KT M02/M09 A3035 RMK A01 T10191087  RH  060%=      5-min Rain = 0
KDC1 030223Z 36005KT M02/M09 A3035 RMK A01 T10181088  RH  059%=      5-min Rain = 0
KDC1 030224Z 36004KT M02/M09 A3035 RMK A01 T10181089  RH  058%=      5-min Rain = 0
KDC1 030225Z 00004KT M02/M09 A3035 RMK A01 T10181090  RH  058%=      5-min Rain = 0
KDC1 030226Z 00005KT M02/M09 A3035 RMK A01 T10171092  RH  056%=      5-min Rain = 0
KDC1 030227Z 36005KT M02/M09 A3035 RMK A01 T10161094  RH  055%=      5-min Rain = 0
KDC1 030228Z 36005KT M02/M10 A3035 RMK A01 T10161096  RH  054%=      5-min Rain = 0
KDC1 030229Z 36005KT M02/M10 A3035 RMK A01 T10151097  RH  053%=      5-min Rain = 0
KDC1 030230Z 36005KT M01/M10 A3035 RMK A01 T10141098  RH  053%=      5-min Rain = 0
KDC1 030231Z 00006KT M01/M10 A3035 RMK A01 T10141099  RH  052%=      5-min Rain = 0
KDC1 030232Z 00005KT M01/M10 A3035 RMK A01 T10131099  RH  052%=      5-min Rain = 0
KDC1 030233Z 00006KT M01/M10 A3036 RMK A01 T10131099  RH  052%=      5-min Rain = 0
KDC1 030234Z 01006KT M01/M10 A3036 RMK A01 T10131099  RH  052%=      5-min Rain = 0
KDC1 030235Z 01006KT M01/M10 A3036 RMK A01 T10121098  RH  052%=      5-min Rain = 0
KDC1 030236Z 01006KT M01/M10 A3036 RMK A01 T10111097  RH  052%=      5-min Rain = 0
KDC1 030237Z 01006KT M01/M10 A3036 RMK A01 T10111097  RH  052%=      5-min Rain = 0
KDC1 030238Z 00006KT M01/M10 A3036 RMK A01 T10111096  RH  052%=      5-min Rain = 0
KDC1 030239Z 00006KT M01/M10 A3036 RMK A01 T10111095  RH  053%=      5-min Rain = 0
KDC1 030240Z 00006KT M01/M09 A3036 RMK A01 T10101094  RH  053%=      5-min Rain = 0
KDC1 030241Z 00006KT M01/M09 A3036 RMK A01 T10111094  RH  053%=      5-min Rain = 0
KDC1 030242Z 00006KT M01/M09 A3036 RMK A01 T10101093  RH  053%=      5-min Rain = 0
KDC1 030243Z 00006KT M01/M09 A3036 RMK A01 T10111093  RH  053%=      5-min Rain = 0
KDC1 030244Z 00006KT M01/M09 A3036 RMK A01 T10111093  RH  054%=      5-min Rain = 0
KDC1 030245Z 00006KT M01/M09 A3036 RMK A01 T10121094  RH  054%=      5-min Rain = 0
KDC1 030246Z 00006KT M01/M09 A3036 RMK A01 T10121094  RH  053%=      5-min Rain = 0
KDC1 030247Z 00006KT M01/M09 A3036 RMK A01 T10111094  RH  053%=      5-min Rain = 0
KDC1 030248Z 00006KT M01/M09 A3036 RMK A01 T10111094  RH  053%=      5-min Rain = 0
KDC1 030249Z 00006KT M01/M09 A3036 RMK A01 T10111094  RH  053%=      5-min Rain = 0
KDC1 030250Z 00006KT M01/M09 A3036 RMK A01 T10111093  RH  054%=      5-min Rain = 0
KDC1 030251Z 00006KT M01/M09 A3036 RMK A01 T10111093  RH  054%=      5-min Rain = 0
KDC1 030252Z 01006KT M01/M09 A3036 RMK A01 T10101093  RH  054%=      5-min Rain = 0
KDC1 030253Z 00007KT M01/M09 A3036 RMK A01 T10111093  RH  054%=      5-min Rain = 0
KDC1 030254Z 00006KT M01/M09 A3036 RMK A01 T10111093  RH  054%=      5-min Rain = 0
KDC1 030255Z 00006KT M01/M09 A3036 RMK A01 T10111093  RH  054%=      5-min Rain = 0
KDC1 030256Z 00006KT M01/M09 A3036 RMK A01 T10101093  RH  053%=      5-min Rain = 0
KDC1 030257Z 00006KT M01/M09 A3036 RMK A01 T10101094  RH  053%=      5-min Rain = 0
KDC1 030258Z 36006KT M01/M09 A3036 RMK A01 T10111094  RH  053%=      5-min Rain = 0
KDC1 030259Z 00006KT M01/M09 A3036 RMK A01 T10111093  RH  053%=      5-min Rain = 0
KDC1 030300Z 36006KT M01/M09 A3036 RMK A01 T10101093  RH  054%=      5-min Rain = 0
KDC1 030301Z 36006KT M01/M09 A3036 RMK A01 T10101092  RH  054%=      5-min Rain = 0
KDC1 030302Z 36005KT M01/M09 A3036 RMK A01 T10111092  RH  054%=      5-min Rain = 0
KDC1 030303Z 00006KT M01/M09 A3037 RMK A01 T10111092  RH  054%=      5-min Rain = 0
KDC1 030304Z 36006KT M01/M09 A3037 RMK A01 T10111092  RH  054%=      5-min Rain = 0
KDC1 030305Z 36006KT M01/M09 A3037 RMK A01 T10111092  RH  054%=      5-min Rain = 0
KDC1 030306Z 35006KT M01/M09 A3037 RMK A01 T10111092  RH  054%=      5-min Rain = 0
KDC1 030307Z 36006KT M01/M09 A3037 RMK A01 T10101092  RH  054%=      5-min Rain = 0
KDC1 030308Z 00006KT M01/M09 A3036 RMK A01 T10101091  RH  054%=      5-min Rain = 0
KDC1 030309Z 01007KT M01/M09 A3036 RMK A01 T10101091  RH  054%=      5-min Rain = 0
KDC1 030310Z 01007KT M01/M09 A3036 RMK A01 T10101092  RH  054%=      5-min Rain = 0
KDC1 030311Z 01007KT M01/M09 A3036 RMK A01 T10091092  RH  053%=      5-min Rain = 0
KDC1 030312Z 01007KT M01/M09 A3036 RMK A01 T10081092  RH  053%=      5-min Rain = 0
KDC1 030313Z 01007KT M01/M09 A3036 RMK A01 T10081092  RH  053%=      5-min Rain = 0
KDC1 030314Z 01006KT M01/M09 A3036 RMK A01 T10081091  RH  054%=      5-min Rain = 0
KDC1 030315Z 01006KT M01/M09 A3036 RMK A01 T10091091  RH  054%=      5-min Rain = 0
KDC1 030316Z 02007KT M01/M09 A3036 RMK A01 T10101091  RH  054%=      5-min Rain = 0
KDC1 030317Z 01007KT M01/M09 A3036 RMK A01 T10101091  RH  054%=      5-min Rain = 0
KDC1 030318Z 02007KT M01/M09 A3036 RMK A01 T10091091  RH  054%=      5-min Rain = 0
KDC1 030319Z 02006KT M01/M09 A3036 RMK A01 T10091091  RH  054%=      5-min Rain = 0
KDC1 030320Z 02006KT M01/M09 A3036 RMK A01 T10091092  RH  053%=      5-min Rain = 0
KDC1 030321Z 02006KT M01/M09 A3036 RMK A01 T10091091  RH  054%=      5-min Rain = 0
KDC1 030322Z 02006KT M01/M09 A3036 RMK A01 T10101091  RH  054%=      5-min Rain = 0
KDC1 030323Z 01006KT M01/M09 A3036 RMK A01 T10111090  RH  055%=      5-min Rain = 0
KDC1 030324Z 01006KT M01/M09 A3036 RMK A01 T10111090  RH  055%=      5-min Rain = 0
KDC1 030325Z 01006KT M01/M09 A3036 RMK A01 T10121090  RH  056%=      5-min Rain = 0
KDC1 030326Z 01006KT M01/M09 A3036 RMK A01 T10131089  RH  056%=      5-min Rain = 0
KDC1 030327Z 00006KT M01/M09 A3036 RMK A01 T10141088  RH  057%=      5-min Rain = 0
KDC1 030328Z 01006KT M02/M09 A3036 RMK A01 T10151088  RH  058%=      5-min Rain = 0
KDC1 030329Z 01006KT M02/M09 A3036 RMK A01 T10161088  RH  058%=      5-min Rain = 0
KDC1 030330Z 01007KT M02/M09 A3036 RMK A01 T10161088  RH  058%=      5-min Rain = 0
KDC1 030331Z 00006KT M02/M09 A3036 RMK A01 T10161089  RH  058%=      5-min Rain = 0
KDC1 030332Z 00006KT M02/M09 A3036 RMK A01 T10171089  RH  058%=      5-min Rain = 0
KDC1 030333Z 01007KT M02/M09 A3036 RMK A01 T10171090  RH  057%=      5-min Rain = 0
KDC1 030334Z 01006KT M02/M09 A3036 RMK A01 T10171092  RH  056%=      5-min Rain = 0
KDC1 030335Z 00007KT M02/M09 A3036 RMK A01 T10161093  RH  056%=      5-min Rain = 0
KDC1 030336Z 00007KT M02/M09 A3036 RMK A01 T10151094  RH  055%=      5-min Rain = 0
KDC1 030337Z 00007KT M01/M10 A3036 RMK A01 T10141095  RH  054%=      5-min Rain = 0
KDC1 030338Z 01007KT M01/M10 A3036 RMK A01 T10131096  RH  053%=      5-min Rain = 0
KDC1 030339Z 01007KT M01/M10 A3036 RMK A01 T10131097  RH  053%=      5-min Rain = 0
KDC1 030340Z 00006KT M01/M10 A3036 RMK A01 T10121097  RH  052%=      5-min Rain = 0
KDC1 030341Z 01007KT M01/M10 A3036 RMK A01 T10111097  RH  052%=      5-min Rain = 0
KDC1 030342Z 00007KT M01/M10 A3036 RMK A01 T10101097  RH  052%=      5-min Rain = 0
KDC1 030343Z 36006KT M01/M10 A3036 RMK A01 T10111098  RH  051%=      5-min Rain = 0
KDC1 030344Z 36006KT M01/M10 A3036 RMK A01 T10111098  RH  051%=      5-min Rain = 0
KDC1 030345Z 00007KT M01/M10 A3036 RMK A01 T10111098  RH  052%=      5-min Rain = 0
KDC1 030346Z 00007KT M01/M10 A3036 RMK A01 T10111098  RH  051%=      5-min Rain = 0
KDC1 030347Z 01007KT M01/M10 A3036 RMK A01 T10101098  RH  051%=      5-min Rain = 0
KDC1 030348Z 00007KT M01/M10 A3036 RMK A01 T10091098  RH  051%=      5-min Rain = 0
KDC1 030349Z 00008KT M01/M10 A3036 RMK A01 T10091098  RH  051%=      5-min Rain = 0
KDC1 030350Z 00008KT M01/M10 A3036 RMK A01 T10091097  RH  051%=      5-min Rain = 0
KDC1 030351Z 00008KT M01/M10 A3036 RMK A01 T10091097  RH  051%=      5-min Rain = 0
KDC1 030352Z 00008KT M01/M10 A3036 RMK A01 T10091096  RH  051%=      5-min Rain = 0
KDC1 030353Z 00008KT M01/M10 A3036 RMK A01 T10091096  RH  051%=      5-min Rain = 0
KDC1 030354Z 00008KT M01/M10 A3036 RMK A01 T10091097  RH  051%=      5-min Rain = 0
KDC1 030355Z 01008KT M01/M10 A3036 RMK A01 T10081097  RH  051%=      5-min Rain = 0
KDC1 030356Z 01008KT M01/M10 A3036 RMK A01 T10071097  RH  051%=      5-min Rain = 0
KDC1 030357Z 00008KT M01/M10 A3036 RMK A01 T10061097  RH  050%=      5-min Rain = 0
KDC1 030358Z 00008KT M01/M10 A3036 RMK A01 T10061097  RH  050%=      5-min Rain = 0
KDC1 030359Z 00008KT M01/M10 A3036 RMK A01 T10061097  RH  050%=      5-min Rain = 0
KDC1 030400Z 00008KT M01/M10 A3036 RMK A01 T10051097  RH  050%=      5-min Rain = 0
KDC1 030401Z 00008KT M01/M10 A3036 RMK A01 T10051097  RH  050%=      5-min Rain = 0
KDC1 030402Z 36007KT M01/M10 A3036 RMK A01 T10061098  RH  050%=      5-min Rain = 0
KDC1 030403Z 35008KT M01/M10 A3036 RMK A01 T10061099  RH  050%=      5-min Rain = 0
KDC1 030404Z 35005KT M01/M10 A3036 RMK A01 T10071100  RH  050%=      5-min Rain = 0
KDC1 030405Z 36006KT M01/M10 A3036 RMK A01 T10111101  RH  050%=      5-min Rain = 0
KDC1 030406Z 36007KT M01/M10 A3036 RMK A01 T10141102  RH  051%=      5-min Rain = 0
KDC1 030407Z 00007KT M02/M10 A3036 RMK A01 T10161102  RH  052%=      5-min Rain = 0
KDC1 030408Z 36007KT M02/M10 A3037 RMK A01 T10161102  RH  052%=      5-min Rain = 0
KDC1 030409Z 36007KT M02/M10 A3037 RMK A01 T10171102  RH  052%=      5-min Rain = 0
KDC1 030410Z 00007KT M02/M10 A3037 RMK A01 T10171101  RH  053%=      5-min Rain = 0
KDC1 030411Z 00007KT M02/M10 A3037 RMK A01 T10161101  RH  053%=      5-min Rain = 0
KDC1 030412Z 00007KT M02/M10 A3037 RMK A01 T10161101  RH  053%=      5-min Rain = 0
KDC1 030413Z 00007KT M02/M10 A3037 RMK A01 T10151099  RH  053%=      5-min Rain = 0
KDC1 030414Z 36007KT M01/M10 A3036 RMK A01 T10141098  RH  053%=      5-min Rain = 0
KDC1 030415Z 00007KT M01/M10 A3036 RMK A01 T10131097  RH  053%=      5-min Rain = 0
KDC1 030416Z 00007KT M01/M10 A3036 RMK A01 T10131098  RH  052%=      5-min Rain = 0
KDC1 030417Z 00007KT M01/M10 A3036 RMK A01 T10121098  RH  052%=      5-min Rain = 0
KDC1 030418Z 00008KT M01/M10 A3036 RMK A01 T10121098  RH  052%=      5-min Rain = 0
KDC1 030419Z 36007KT M01/M10 A3036 RMK A01 T10111098  RH  052%=      5-min Rain = 0
KDC1 030420Z 00007KT M01/M10 A3036 RMK A01 T10111097  RH  052%=      5-min Rain = 0
KDC1 030421Z 00007KT M01/M10 A3036 RMK A01 T10111097  RH  052%=      5-min Rain = 0
KDC1 030422Z 00007KT M01/M10 A3036 RMK A01 T10111097  RH  052%=      5-min Rain = 0
KDC1 030423Z 36007KT M01/M10 A3037 RMK A01 T10111097  RH  052%=      5-min Rain = 0
KDC1 030424Z 36007KT M01/M10 A3037 RMK A01 T10121098  RH  052%=      5-min Rain = 0
KDC1 030425Z 36007KT M01/M10 A3037 RMK A01 T10121098  RH  052%=      5-min Rain = 0
KDC1 030426Z 36007KT M01/M10 A3037 RMK A01 T10121099  RH  052%=      5-min Rain = 0
KDC1 030427Z 00007KT M01/M10 A3037 RMK A01 T10121099  RH  052%=      5-min Rain = 0
KDC1 030428Z 00007KT M01/M10 A3037 RMK A01 T10121100  RH  051%=      5-min Rain = 0
KDC1 030429Z 36008KT M01/M10 A3036 RMK A01 T10121100  RH  051%=      5-min Rain = 0
KDC1 030430Z 00008KT M01/M10 A3036 RMK A01 T10121100  RH  051%=      5-min Rain = 0
KDC1 030431Z 36007KT M01/M10 A3036 RMK A01 T10121100  RH  051%=      5-min Rain = 0
KDC1 030432Z 36007KT M01/M10 A3036 RMK A01 T10121100  RH  051%=      5-min Rain = 0
KDC1 030433Z 35007KT M01/M10 A3036 RMK A01 T10121100  RH  051%=      5-min Rain = 0
KDC1 030434Z 36007KT M01/M10 A3037 RMK A01 T10121100  RH  051%=      5-min Rain = 0
KDC1 030435Z 36007KT M01/M10 A3037 RMK A01 T10131100  RH  051%=      5-min Rain = 0
KDC1 030436Z 36007KT M01/M10 A3037 RMK A01 T10131100  RH  051%=      5-min Rain = 0
KDC1 030437Z 36007KT M01/M10 A3037 RMK A01 T10131100  RH  051%=      5-min Rain = 0
KDC1 030438Z 36007KT M01/M10 A3037 RMK A01 T10131101  RH  051%=      5-min Rain = 0
KDC1 030439Z 36007KT M01/M10 A3037 RMK A01 T10121101  RH  051%=      5-min Rain = 0
KDC1 030440Z 00008KT M01/M10 A3037 RMK A01 T10121102  RH  051%=      5-min Rain = 0
KDC1 030441Z 36008KT M01/M10 A3037 RMK A01 T10111102  RH  050%=      5-min Rain = 0
KDC1 030442Z 36008KT M01/M10 A3037 RMK A01 T10111102  RH  050%=      5-min Rain = 0
KDC1 030443Z 36008KT M01/M10 A3037 RMK A01 T10111102  RH  050%=      5-min Rain = 0
KDC1 030444Z 00009KT M01/M10 A3037 RMK A01 T10111102  RH  050%=      5-min Rain = 0
KDC1 030445Z 00009KT M01/M10 A3037 RMK A01 T10111102  RH  050%=      5-min Rain = 0
KDC1 030446Z 01009KT M01/M10 A3037 RMK A01 T10111103  RH  050%=      5-min Rain = 0
KDC1 030447Z 01009KT M01/M10 A3037 RMK A01 T10101103  RH  049%=      5-min Rain = 0
KDC1 030448Z 01009KT M01/M10 A3037 RMK A01 T10091103  RH  049%=      5-min Rain = 0
KDC1 030449Z 01010KT M01/M10 A3037 RMK A01 T10081102  RH  049%=      5-min Rain = 0
KDC1 030450Z 02010KT M01/M10 A3037 RMK A01 T10071102  RH  049%=      5-min Rain = 0
KDC1 030451Z 01008KT M01/M10 A3037 RMK A01 T10061104  RH  048%=      5-min Rain = 0
KDC1 030452Z 01009KT M01/M10 A3037 RMK A01 T10051104  RH  047%=      5-min Rain = 0
KDC1 030453Z 02008KT M01/M10 A3037 RMK A01 T10051104  RH  047%=      5-min Rain = 0
KDC1 030454Z 02009KT M01/M10 A3037 RMK A01 T10051104  RH  047%=      5-min Rain = 0
KDC1 030455Z 01008KT M01/M11 A3037 RMK A01 T10051106  RH  046%=      5-min Rain = 0
KDC1 030456Z 01008KT M01/M11 A3037 RMK A01 T10051107  RH  046%=      5-min Rain = 0
KDC1 030457Z 01008KT M00/M11 A3037 RMK A01 T10041106  RH  046%=      5-min Rain = 0
KDC1 030458Z 01008KT M01/M11 A3037 RMK A01 T10051105  RH  047%=      5-min Rain = 0
KDC1 030459Z 01007KT M01/M10 A3037 RMK A01 T10061104  RH  048%=      5-min Rain = 0
KDC1 030500Z 01008KT M01/M10 A3037 RMK A01 T10081104  RH  048%=      5-min Rain = 0
KDC1 030501Z 01008KT M01/M11 A3037 RMK A01 T10091105  RH  048%=      5-min Rain = 0
KDC1 030502Z 01008KT M01/M11 A3037 RMK A01 T10091105  RH  048%=      5-min Rain = 0
KDC1 030503Z 01007KT M01/M11 A3037 RMK A01 T10091105  RH  048%=      5-min Rain = 0
KDC1 030504Z 01007KT M01/M11 A3037 RMK A01 T10101105  RH  048%=      5-min Rain = 0
KDC1 030505Z 01007KT M01/M11 A3037 RMK A01 T10111105  RH  049%=      5-min Rain = 0
KDC1 030506Z 01007KT M01/M11 A3037 RMK A01 T10121105  RH  049%=      5-min Rain = 0
KDC1 030507Z 01006KT M01/M10 A3037 RMK A01 T10121104  RH  050%=      5-min Rain = 0
KDC1 030508Z 01008KT M01/M10 A3037 RMK A01 T10121104  RH  050%=      5-min Rain = 0
KDC1 030509Z 01007KT M01/M10 A3037 RMK A01 T10121104  RH  050%=      5-min Rain = 0
KDC1 030510Z 01007KT M01/M10 A3037 RMK A01 T10121104  RH  049%=      5-min Rain = 0
KDC1 030511Z 01007KT M01/M11 A3037 RMK A01 T10121105  RH  049%=      5-min Rain = 0
KDC1 030512Z 01007KT M01/M11 A3037 RMK A01 T10121105  RH  049%=      5-min Rain = 0
KDC1 030513Z 01006KT M01/M11 A3037 RMK A01 T10121105  RH  049%=      5-min Rain = 0
KDC1 030514Z 00007KT M01/M11 A3037 RMK A01 T10121105  RH  049%=      5-min Rain = 0
KDC1 030515Z 01007KT M01/M10 A3037 RMK A01 T10121104  RH  050%=      5-min Rain = 0
KDC1 030516Z 01006KT M01/M10 A3037 RMK A01 T10121103  RH  050%=      5-min Rain = 0
KDC1 030517Z 00006KT M01/M10 A3037 RMK A01 T10121102  RH  051%=      5-min Rain = 0
KDC1 030518Z 01006KT M01/M10 A3037 RMK A01 T10121101  RH  051%=      5-min Rain = 0
KDC1 030519Z 02008KT M01/M10 A3037 RMK A01 T10111100  RH  051%=      5-min Rain = 0
KDC1 030520Z 02007KT M01/M10 A3037 RMK A01 T10081100  RH  050%=      5-min Rain = 0
KDC1 030521Z 02008KT M01/M10 A3037 RMK A01 T10051101  RH  048%=      5-min Rain = 0
KDC1 030522Z 02008KT M00/M10 A3037 RMK A01 T10021102  RH  047%=      5-min Rain = 0
KDC1 030523Z 02009KT 00/10 A3037 RMK A01 T00000-102  RH  046%=      5-min Rain = 0
KDC1 030524Z 01010KT 00/M10 A3037 RMK A01 T00021102  RH  046%=      5-min Rain = 0
KDC1 030525Z 02011KT 00/M10 A3037 RMK A01 T00031102  RH  045%=      5-min Rain = 0
KDC1 030526Z 02010KT 01/M10 A3037 RMK A01 T00051103  RH  044%=      5-min Rain = 0
KDC1 030527Z 03010KT 01/M10 A3037 RMK A01 T00061104  RH  043%=      5-min Rain = 0
KDC1 030528Z 03008KT 01/M11 A3037 RMK A01 T00071106  RH  043%=      5-min Rain = 0
KDC1 030529Z 02008KT 01/M11 A3037 RMK A01 T00071106  RH  042%=      5-min Rain = 0
KDC1 030530Z 02010KT 01/M11 A3037 RMK A01 T00071105  RH  043%=      5-min Rain = 0
KDC1 030531Z 02010KT 01/M10 A3037 RMK A01 T00071104  RH  043%=      5-min Rain = 0
KDC1 030532Z 02009KT 01/M10 A3037 RMK A01 T00071104  RH  043%=      5-min Rain = 0
KDC1 030533Z 03011KT 01/M10 A3037 RMK A01 T00081104  RH  043%=      5-min Rain = 0
KDC1 030534Z 03010KT 01/M10 A3037 RMK A01 T00081104  RH  043%=      5-min Rain = 0
KDC1 030535Z 02009KT 01/M10 A3037 RMK A01 T00091104  RH  043%=      5-min Rain = 0
KDC1 030536Z 02009KT 01/M10 A3037 RMK A01 T00091104  RH  043%=      5-min Rain = 0
KDC1 030537Z 02010KT 01/M10 A3037 RMK A01 T00091104  RH  043%=      5-min Rain = 0
KDC1 030538Z 02010KT 01/M10 A3037 RMK A01 T00091104  RH  043%=      5-min Rain = 0
KDC1 030539Z 02009KT 01/M10 A3037 RMK A01 T00091104  RH  042%=      5-min Rain = 0
KDC1 030540Z 02009KT 01/M11 A3037 RMK A01 T00091105  RH  042%=      5-min Rain = 0
KDC1 030541Z 02009KT 01/M10 A3037 RMK A01 T00091104  RH  042%=      5-min Rain = 0
KDC1 030542Z 02009KT 01/M10 A3037 RMK A01 T00091104  RH  042%=      5-min Rain = 0
KDC1 030543Z 02009KT 01/M10 A3037 RMK A01 T00091104  RH  042%=      5-min Rain = 0
KDC1 030544Z 02009KT 01/M10 A3037 RMK A01 T00091104  RH  043%=      5-min Rain = 0
KDC1 030545Z 02010KT 01/M10 A3037 RMK A01 T00091104  RH  042%=      5-min Rain = 0
KDC1 030546Z 02010KT 01/M10 A3037 RMK A01 T00091104  RH  043%=      5-min Rain = 0
KDC1 030547Z 02010KT 01/M10 A3037 RMK A01 T00091104  RH  042%=      5-min Rain = 0
KDC1 030548Z 02010KT 01/M10 A3037 RMK A01 T00091104  RH  042%=      5-min Rain = 0
KDC1 030549Z 02009KT 01/M10 A3037 RMK A01 T00091104  RH  042%=      5-min Rain = 0
KDC1 030550Z 02009KT 01/M11 A3037 RMK A01 T00091105  RH  042%=      5-min Rain = 0
KDC1 030551Z 01009KT 01/M11 A3037 RMK A01 T00091105  RH  042%=      5-min Rain = 0
KDC1 030552Z 01009KT 01/M11 A3037 RMK A01 T00091105  RH  042%=      5-min Rain = 0
KDC1 030553Z 01008KT 01/M11 A3037 RMK A01 T00091105  RH  042%=      5-min Rain = 0
KDC1 030554Z 01008KT 01/M11 A3037 RMK A01 T00081105  RH  043%=      5-min Rain = 0
KDC1 030555Z 01009KT 01/M11 A3037 RMK A01 T00081105  RH  043%=      5-min Rain = 0
KDC1 030556Z 01008KT 01/M10 A3037 RMK A01 T00071104  RH  043%=      5-min Rain = 0
KDC1 030557Z 02008KT 01/M10 A3037 RMK A01 T00071104  RH  043%=      5-min Rain = 0
KDC1 030558Z 01008KT 01/M10 A3037 RMK A01 T00071103  RH  044%=      5-min Rain = 0
KDC1 030559Z 01007KT 01/M10 A3037 RMK A01 T00071102  RH  044%=      5-min Rain = 0

Page generated in 0.0946 seconds.